GW5830 Weather Reports


time (UTC)temp
C
wind
direction
speed
KPH
gust
KPH
rain 1hr
cm
rain 24hr
cm
rain mn
cm
humidity
%
barometer
mb
20260507064658 2 204 1.6 12.9 0.08 0.30 0.30 88 1010.6
20260507064559 2 145 9.7 12.9 0.08 0.30 0.30 89 1010.6
20260507064358 2 161 8.0 11.3 0.08 0.30 0.30 90 1010.7
20260507064258 2 162 6.4 11.3 0.08 0.30 0.30 91 1010.7
20260507064159 2 182 4.8 9.7 0.08 0.30 0.30 91 1010.7
20260507064059 2 78 1.6 9.7 0.08 0.30 0.30 92 1010.7
20260507064000 2 78 3.2 9.7 0.05 0.28 0.28 92 1010.7
20260507063858 2 78 3.2 9.7 0.05 0.28 0.28 92 1010.6
20260507063759 2 78 3.2 9.7 0.05 0.28 0.28 92 1010.7
20260507063659 2 78 1.6 9.7 0.05 0.28 0.28 92 1010.7
20260507063359 2 108 1.6 4.8 0.05 0.28 0.28 92 1010.6
20260507063258 2 108 0.0 3.2 0.05 0.28 0.28 92 1010.6
20260507063059 2 108 0.0 3.2 0.05 0.28 0.28 92 1010.6
20260507062859 2 108 1.6 3.2 0.05 0.28 0.28 92 1010.6
20260507062658 2 108 1.6 3.2 0.05 0.28 0.28 92 1010.6
20260507062558 2 108 0.0 3.2 0.05 0.28 0.28 92 1010.6
20260507062501 2 108 1.6 3.2 0.05 0.28 0.28 92 1010.6
20260507062359 2 108 1.6 3.2 0.05 0.28 0.28 91 1010.6
20260507062157 2 108 0.0 3.2 0.03 0.25 0.25 91 1010.5
20260507062058 2 108 0.0 3.2 0.03 0.25 0.25 91 1010.6
20260507062000 2 108 0.0 3.2 0.03 0.25 0.25 91 1010.5
20260507061858 2 108 3.2 3.2 0.03 0.25 0.25 91 1010.5
20260507061659 2 108 0.0 3.2 0.03 0.25 0.25 91 1010.5
20260507061559 2 108 0.0 3.2 0.03 0.25 0.25 91 1010.5
20260507061502 2 108 1.6 3.2 0.03 0.25 0.25 91 1010.5
20260507061259 2 108 3.2 3.2 0.03 0.25 0.25 91 1010.5
20260507061159 2 108 1.6 4.8 0.03 0.25 0.25 91 1010.5
20260507061000 2 108 1.6 4.8 0.03 0.25 0.25 91 1010.5
20260507060859 2 108 0.0 4.8 0.03 0.25 0.25 91 1010.5
20260507060758 2 108 1.6 4.8 0.03 0.25 0.25 91 1010.5
20260507060659 2 108 3.2 4.8 0.03 0.25 0.25 91 1010.5
20260507060558 2 108 1.6 4.8 0.03 0.25 0.25 91 1010.5
20260507060459 2 108 0.0 4.8 0.03 0.25 0.25 91 1010.5
20260507060259 2 108 3.2 3.2 0.03 0.23 0.23 91 1010.5
20260507060158 2 108 1.6 1.6 0.03 0.23 0.23 91 1010.5
20260507055758 2 108 0.0 6.4 0.03 0.23 0.23 90 1010.4
20260507055659 2 108 0.0 6.4 0.03 0.23 0.23 90 1010.4
20260507055558 2 108 0.0 6.4 0.03 0.23 0.23 90 1010.4
20260507055500 2 108 0.0 6.4 0.03 0.23 0.23 90 1010.4
20260507055358 2 108 0.0 6.4 0.03 0.23 0.23 91 1010.3
20260507055258 2 108 1.6 6.4 0.03 0.23 0.23 91 1010.3
20260507055201 2 108 3.2 6.4 0.03 0.23 0.23 91 1010.4
20260507055057 2 109 3.2 6.4 0.03 0.23 0.23 91 1010.3
20260507055000 2 142 3.2 4.8 0.03 0.23 0.23 91 1010.3
20260507054858 2 144 3.2 4.8 0.03 0.23 0.23 91 1010.3
20260507054758 2 144 3.2 3.2 0.03 0.23 0.23 92 1010.3
20260507054658 2 144 0.0 3.2 0.03 0.23 0.23 92 1010.3
20260507054557 2 144 0.0 3.2 0.03 0.23 0.23 92 1010.3
20260507054500 2 144 0.0 3.2 0.03 0.23 0.23 92 1010.3
20260507054358 2 144 0.0 3.2 0.03 0.23 0.23 92 1010.3
20260507054259 2 144 0.0 3.2 0.03 0.23 0.23 92 1010.3
20260507054159 2 144 0.0 3.2 0.03 0.23 0.23 91 1010.2
20260507054058 2 144 0.0 3.2 0.03 0.23 0.23 91 1010.2
20260507054003 2 144 0.0 3.2 0.03 0.23 0.23 91 1010.2
20260507053858 2 144 0.0 3.2 0.03 0.23 0.23 92 1010.2
20260507053758 2 144 1.6 3.2 0.03 0.23 0.23 92 1010.3
20260507053658 2 144 0.0 3.2 0.03 0.23 0.23 92 1010.2
20260507053500 2 144 0.0 3.2 0.03 0.23 0.23 91 1010.2
20260507053359 2 144 1.6 3.2 0.03 0.23 0.23 91 1010.2
20260507053258 2 144 1.6 3.2 0.03 0.23 0.23 91 1010.2
20260507053158 2 144 1.6 3.2 0.03 0.23 0.23 91 1010.2
20260507053058 2 144 3.2 3.2 0.03 0.23 0.23 91 1010.2
20260507053001 2 144 1.6 3.2 0.03 0.23 0.23 91 1010.2
20260507052859 2 144 0.0 3.2 0.03 0.23 0.23 91 1010.2
20260507052757 2 144 1.6 3.2 0.03 0.23 0.23 91 1010.2
20260507052700 2 144 1.6 3.2 0.03 0.23 0.23 91 1010.2
20260507052558 2 144 1.6 3.2 0.03 0.23 0.23 91 1010.1
20260507052500 2 144 1.6 3.2 0.03 0.23 0.23 91 1010.2
20260507052158 2 144 0.0 3.2 0.03 0.23 0.23 90 1010.1
20260507052058 2 144 1.6 3.2 0.03 0.23 0.23 90 1010.2
20260507052001 2 144 3.2 3.2 0.03 0.23 0.23 90 1010.2
20260507051757 2 144 1.6 3.2 0.05 0.23 0.23 90 1010.1
20260507051558 2 144 1.6 4.8 0.05 0.23 0.23 90 1010.1
20260507051500 2 144 3.2 6.4 0.05 0.23 0.23 90 1010.1
20260507051357 2 144 1.6 6.4 0.05 0.23 0.23 90 1010.1
20260507051259 2 144 1.6 6.4 0.05 0.23 0.23 90 1010.1
20260507051159 2 144 1.6 6.4 0.05 0.23 0.23 90 1010.1
20260507051058 2 144 1.6 6.4 0.05 0.23 0.23 90 1010.1
20260507051000 2 144 1.6 6.4 0.08 0.23 0.23 90 1010.1
20260507050858 2 144 1.6 6.4 0.08 0.23 0.23 90 1010.1
20260507050758 2 144 3.2 6.4 0.08 0.23 0.23 90 1010.0
20260507050658 2 144 3.2 6.4 0.08 0.23 0.23 90 1010.0
20260507050459 2 137 3.2 6.4 0.10 0.23 0.23 90 1010.1
20260507050358 2 137 6.4 6.4 0.10 0.20 0.20 90 1010.0
20260507050159 2 127 3.2 6.4 0.10 0.20 0.20 90 1010.0
20260507050058 2 127 3.2 6.4 0.13 0.20 0.20 90 1010.0
20260507045958 2 126 3.2 6.4 0.13 0.20 0.20 90 1010.1
20260507045857 2 126 3.2 6.4 0.13 0.20 0.20 90 1010.0
20260507045757 2 126 1.6 6.4 0.13 0.20 0.20 90 1010.0
20260507045657 2 126 1.6 6.4 0.15 0.20 0.20 89 1010.0
20260507045557 2 126 4.8 6.4 0.15 0.20 0.20 90 1010.0
20260507045459 2 126 3.2 3.2 0.18 0.20 0.20 90 1010.1
20260507045357 2 126 0.0 3.2 0.18 0.20 0.20 90 1010.1
20260507045258 2 126 1.6 1.6 0.18 0.20 0.20 90 1010.1
20260507045157 2 126 1.6 1.6 0.18 0.20 0.20 90 1010.1
20260507045057 2 126 1.6 1.6 0.18 0.20 0.20 90 1010.1
20260507044959 2 126 0.0 1.6 0.20 0.20 0.20 90 1010.1
20260507044857 2 126 0.0 3.2 0.20 0.20 0.20 90 1010.1
20260507044757 2 126 0.0 4.8 0.20 0.20 0.20 90 1010.1
20260507044658 2 126 0.0 4.8 0.20 0.20 0.20 90 1010.1
20260507044557 2 126 0.0 4.8 0.20 0.20 0.20 90 1010.1
20260507044358 2 126 0.0 4.8 0.20 0.20 0.20 89 1010.1
20260507044257 2 126 0.0 4.8 0.20 0.20 0.20 89 1010.1
20260507044157 2 126 1.6 4.8 0.20 0.20 0.20 89 1010.1
20260507044058 2 126 1.6 4.8 0.20 0.20 0.20 89 1010.1
20260507043959 2 126 3.2 4.8 0.20 0.20 0.20 89 1010.1
20260507043756 2 126 1.6 4.8 0.20 0.20 0.20 89 1010.1
20260507043657 2 126 1.6 4.8 0.20 0.20 0.20 89 1010.0
20260507043559 2 126 1.6 4.8 0.20 0.20 0.20 89 1010.0
20260507043458 2 126 1.6 4.8 0.20 0.20 0.20 88 1010.1
20260507043357 2 126 3.2 4.8 0.20 0.20 0.20 88 1010.1
20260507043257 2 126 4.8 4.8 0.20 0.20 0.20 89 1010.1
20260507043157 2 126 3.2 6.4 0.20 0.20 0.20 89 1010.1
20260507043057 2 126 3.2 6.4 0.20 0.20 0.20 89 1010.1
20260507043000 2 126 4.8 6.4 0.20 0.20 0.20 89 1010.1
20260507042858 2 126 3.2 6.4 0.20 0.20 0.20 89 1010.1
20260507042757 2 126 3.2 9.7 0.20 0.20 0.20 89 1010.1
20260507042657 2 126 1.6 9.7 0.20 0.20 0.20 88 1010.2
20260507042557 2 126 1.6 9.7 0.20 0.20 0.20 88 1010.1
20260507042357 2 125 4.8 9.7 0.20 0.20 0.20 88 1010.1
20260507042257 2 115 4.8 9.7 0.20 0.20 0.20 88 1010.2
20260507041958 2 107 6.4 9.7 0.18 0.18 0.18 88 1010.2
20260507041858 2 91 9.7 9.7 0.18 0.18 0.18 88 1010.2
20260507041757 2 96 6.4 9.7 0.18 0.18 0.18 87 1010.2
20260507041658 2 95 4.8 9.7 0.18 0.18 0.18 87 1010.2
20260507041558 2 99 3.2 9.7 0.18 0.18 0.18 87 1010.2
20260507041458 2 115 6.4 9.7 0.18 0.18 0.18 87 1010.2
20260507041358 2 155 3.2 8.0 0.18 0.18 0.18 87 1010.2
20260507041258 2 156 3.2 8.0 0.18 0.18 0.18 87 1010.2
20260507041158 2 161 6.4 14.5 0.18 0.18 0.18 87 1010.2
20260507041058 2 161 6.4 14.5 0.18 0.18 0.18 87 1010.2
20260507040958 2 163 8.0 14.5 0.15 0.15 0.15 86 1010.2
20260507040857 2 150 4.8 14.5 0.15 0.15 0.15 86 1010.2
20260507040757 2 150 4.8 14.5 0.15 0.15 0.15 86 1010.2
20260507040658 2 147 6.4 14.5 0.15 0.15 0.15 86 1010.3
20260507040558 2 178 3.2 19.3 0.13 0.13 0.13 86 1010.2
20260507040500 2 178 4.8 19.3 0.13 0.13 0.13 85 1010.2
20260507040401 2 178 3.2 20.9 0.10 0.10 0.10 85 1010.2
20260507040156 3 151 8.0 22.5 0.10 0.10 0.10 85 1010.2
20260507040059 3 181 6.4 22.5 0.08 0.08 0.08 84 1010.1
20260507035959 3 168 8.0 22.5 0.08 0.08 0.08 84 1010.2
20260507035857 3 191 6.4 22.5 0.08 0.08 0.08 83 1010.1
20260507035757 3 167 14.5 22.5 0.08 0.08 0.08 83 1010.1
20260507035658 3 194 12.9 24.1 0.05 0.05 0.05 82 1010.1
20260507035556 3 155 20.9 24.1 0.05 0.05 0.05 81 1010.1
20260507035459 3 194 16.1 24.1 0.03 0.03 0.03 81 1010.1
20260507035358 4 184 11.3 24.1 0.03 0.03 0.03 80 1010.0
20260507035258 4 214 12.9 24.1 0.03 0.03 0.03 79 1010.0
20260507035158 4 161 11.3 24.1 0.03 0.03 0.03 78 1010.0
20260507035057 5 189 8.0 24.1 0.03 0.03 0.03 77 1010.0
20260507035000 5 205 14.5 24.1 0.00 0.00 0.00 75 1009.9
20260507034857 5 240 17.7 17.7 0.00 0.00 0.00 73 1009.9
20260507034757 5 178 9.7 16.1 0.00 0.00 0.00 71 1009.9
20260507034658 5 180 11.3 16.1 0.00 0.00 0.00 71 1009.8
20260507034557 5 202 14.5 17.7 0.00 0.00 0.00 71 1009.8
20260507034459 5 217 11.3 16.1 0.00 0.00 0.00 70 1009.7
20260507034357 5 238 16.1 16.1 0.00 0.00 0.00 69 1009.6
20260507034257 5 165 6.4 14.5 0.00 0.00 0.00 69 1009.6
20260507034157 5 151 6.4 14.5 0.00 0.00 0.00 68 1009.6
20260507033959 5 200 11.3 12.9 0.00 0.00 0.00 70 1009.5
20260507033856 5 171 11.3 11.3 0.00 0.00 0.00 71 1009.5
20260507033756 5 274 4.8 11.3 0.00 0.00 0.00 71 1009.5
20260507033558 5 232 9.7 12.9 0.00 0.00 0.00 71 1009.5
20260507033500 5 279 1.6 11.3 0.00 0.00 0.00 71 1009.4
20260507033257 6 273 6.4 9.7 0.00 0.00 0.00 71 1009.3
20260507033158 6 273 4.8 6.4 0.00 0.00 0.00 71 1009.3
20260507033057 6 250 6.4 6.4 0.00 0.00 0.00 71 1009.3
20260507032959 6 99 3.2 4.8 0.00 0.00 0.00 71 1009.2
20260507032857 6 99 0.0 4.8 0.00 0.00 0.00 71 1009.3
20260507032657 5 99 1.6 12.9 0.00 0.00 0.00 71 1009.2
20260507032459 5 123 3.2 14.5 0.00 0.00 0.00 71 1009.2
20260507032358 5 123 0.0 14.5 0.00 0.00 0.00 71 1009.1
20260507032256 5 123 1.6 14.5 0.00 0.00 0.00 71 1009.1
20260507032158 5 123 3.2 14.5 0.00 0.00 0.00 71 1009.1
20260507032058 6 124 1.6 14.5 0.00 0.00 0.00 71 1009.2
20260507032006 6 124 0.0 14.5 0.00 0.00 0.00 71 1009.2
20260507031858 6 124 4.8 14.5 0.00 0.00 0.00 71 1009.2
20260507031758 5 140 6.4 14.5 0.00 0.00 0.00 71 1009.2
20260507031659 6 158 8.0 8.0 0.00 0.00 0.00 72 1009.2
20260507031557 6 20 3.2 8.0 0.00 0.00 0.00 74 1009.2
20260507031459 6 19 3.2 8.0 0.00 0.00 0.00 74 1009.2
20260507031357 6 15 4.8 8.0 0.00 0.00 0.00 73 1009.1
20260507031256 6 13 3.2 8.0 0.00 0.00 0.00 73 1009.2
20260507031158 6 13 6.4 11.3 0.00 0.00 0.00 73 1009.2
20260507031056 6 17 4.8 11.3 0.00 0.00 0.00 72 1009.2
20260507030958 6 12 4.8 11.3 0.00 0.00 0.00 71 1009.1
20260507030857 6 306 4.8 11.3 0.00 0.00 0.00 71 1009.1
20260507030758 6 279 4.8 11.3 0.00 0.00 0.00 71 1009.1
20260507030459 6 269 3.2 11.3 0.00 0.00 0.00 70 1009.2
20260507030356 6 269 9.7 11.3 0.00 0.00 0.00 68 1009.1
20260507030258 6 191 4.8 11.3 0.00 0.00 0.00 66 1009.1
20260507030158 6 240 3.2 11.3 0.00 0.00 0.00 66 1009.1
20260507025959 6 257 4.8 11.3 0.00 0.00 0.00 67 1009.1
20260507025858 6 257 6.4 11.3 0.00 0.00 0.00 67 1009.0
20260507025757 6 269 1.6 11.3 0.00 0.00 0.00 66 1009.1
20260507025656 6 134 0.0 16.1 0.00 0.00 0.00 66 1009.0
20260507025557 6 134 3.2 16.1 0.00 0.00 0.00 65 1009.0
20260507025458 6 134 11.3 16.1 0.00 0.00 0.00 65 1009.0
20260507025357 6 134 6.4 16.1 0.00 0.00 0.00 66 1009.0
20260507025258 6 288 1.6 16.1 0.00 0.00 0.00 67 1009.0
20260507025158 6 294 8.0 16.1 0.00 0.00 0.00 65 1009.0
20260507024959 6 42 8.0 16.1 0.00 0.00 0.00 67 1009.1
20260507024858 6 38 11.3 16.1 0.00 0.00 0.00 70 1009.0
20260507024658 6 340 4.8 9.7 0.00 0.00 0.00 70 1009.0
20260507024459 6 316 6.4 11.3 0.00 0.00 0.00 71 1009.0
20260507024358 6 308 4.8 11.3 0.00 0.00 0.00 72 1009.0
20260507024256 6 308 1.6 11.3 0.00 0.00 0.00 71 1009.0
20260507024157 6 307 1.6 11.3 0.00 0.00 0.00 71 1009.0
20260507024058 6 295 3.2 11.3 0.00 0.00 0.00 71 1009.0
20260507023958 6 296 4.8 11.3 0.00 0.00 0.00 71 1009.0
20260507023857 6 295 4.8 11.3 0.00 0.00 0.00 71 1009.0
20260507023757 6 289 3.2 11.3 0.00 0.00 0.00 69 1009.0
20260507023658 6 304 6.4 11.3 0.00 0.00 0.00 68 1009.0
20260507023557 6 306 6.4 11.3 0.00 0.00 0.00 68 1008.9
20260507023500 6 313 6.4 9.7 0.00 0.00 0.00 68 1008.9
20260507023358 6 288 11.3 11.3 0.00 0.00 0.00 68 1008.8
20260507023257 6 303 3.2 8.0 0.00 0.00 0.00 68 1008.9
20260507023157 6 285 4.8 14.5 0.00 0.00 0.00 68 1009.0
20260507023056 6 262 3.2 14.5 0.00 0.00 0.00 69 1008.9
20260507022958 6 209 4.8 17.7 0.00 0.00 0.00 71 1008.9
20260507022756 6 183 0.0 17.7 0.00 0.00 0.00 72 1008.9
20260507022657 6 183 1.6 17.7 0.00 0.00 0.00 72 1009.0
20260507022557 6 183 1.6 17.7 0.00 0.00 0.00 73 1008.9
20260507022459 6 183 0.0 17.7 0.00 0.00 0.00 73 1008.9
20260507022358 6 183 6.4 17.7 0.00 0.00 0.00 72 1008.8
20260507022157 6 136 11.3 17.7 0.00 0.00 0.00 67 1008.9
20260507022056 6 181 4.8 11.3 0.00 0.00 0.00 70 1008.9
20260507022000 6 263 1.6 11.3 0.00 0.00 0.00 69 1009.0
20260507021858 6 272 4.8 11.3 0.00 0.00 0.00 71 1008.9
20260507021758 6 272 0.0 11.3 0.00 0.00 0.00 71 1008.9
20260507021658 6 272 3.2 11.3 0.00 0.00 0.00 68 1008.8
20260507021459 6 272 6.4 11.3 0.00 0.00 0.00 66 1008.9
20260507021358 6 275 4.8 11.3 0.00 0.00 0.00 66 1008.8
20260507021258 6 277 4.8 11.3 0.00 0.00 0.00 66 1008.8
20260507021157 6 278 11.3 11.3 0.00 0.00 0.00 67 1008.8
20260507020958 6 300 4.8 8.0 0.00 0.00 0.00 68 1008.8
20260507020858 6 183 1.6 12.9 0.00 0.00 0.00 68 1008.8
20260507020758 6 183 3.2 12.9 0.00 0.00 0.00 68 1008.8
20260507020657 6 183 0.0 12.9 0.00 0.00 0.00 69 1008.8
20260507020459 6 183 1.6 12.9 0.00 0.00 0.00 69 1008.8
20260507020256 6 180 3.2 12.9 0.00 0.00 0.00 67 1008.8
20260507020159 6 175 3.2 12.9 0.00 0.00 0.00 68 1008.8
20260507020058 6 167 4.8 12.9 0.00 0.00 0.00 68 1008.8
20260507015959 6 171 11.3 14.5 0.00 0.00 0.00 70 1008.8
20260507015656 6 103 9.7 9.7 0.00 0.00 0.00 79 1008.8
20260507015557 6 311 1.6 4.8 0.00 0.00 0.00 79 1008.7
20260507015458 6 312 3.2 4.8 0.00 0.00 0.00 78 1008.7
20260507015358 6 313 3.2 4.8 0.00 0.00 0.00 78 1008.7
20260507015257 6 312 0.0 4.8 0.00 0.00 0.00 77 1008.8
20260507015159 6 313 3.2 4.8 0.00 0.00 0.00 77 1008.7
20260507015058 6 312 1.6 4.8 0.00 0.00 0.00 78 1008.7
20260507014959 6 312 1.6 4.8 0.00 0.00 0.00 77 1008.8
20260507014757 6 312 1.6 4.8 0.00 0.00 0.00 77 1008.7
20260507014658 6 317 1.6 4.8 0.00 0.00 0.00 77 1008.7
20260507014557 6 318 1.6 4.8 0.00 0.00 0.00 77 1008.7
20260507014459 6 317 3.2 4.8 0.00 0.00 0.00 77 1008.7
20260507014357 6 317 3.2 4.8 0.00 0.00 0.00 78 1008.7
20260507014258 6 317 3.2 4.8 0.00 0.00 0.00 77 1008.6
20260507014158 6 317 1.6 4.8 0.00 0.00 0.00 76 1008.7
20260507014057 6 317 1.6 4.8 0.00 0.00 0.00 76 1008.7
20260507013958 6 317 0.0 4.8 0.00 0.00 0.00 76 1008.6
20260507013858 6 317 1.6 4.8 0.00 0.00 0.00 76 1008.7
20260507013759 6 317 3.2 4.8 0.00 0.00 0.00 76 1008.7
20260507013558 6 317 1.6 4.8 0.00 0.00 0.00 76 1008.7
20260507013459 6 317 0.0 4.8 0.00 0.00 0.00 77 1008.7
20260507013357 6 317 3.2 4.8 0.00 0.00 0.00 78 1008.6
20260507013158 6 317 3.2 4.8 0.00 0.00 0.00 79 1008.7
20260507013058 6 317 3.2 4.8 0.00 0.00 0.00 79 1008.6
20260507012959 6 317 0.0 4.8 0.00 0.00 0.00 79 1008.7
20260507012859 5 317 3.2 4.8 0.00 0.00 0.00 80 1008.7
20260507012657 5 317 0.0 3.2 0.00 0.00 0.00 80 1008.7
20260507012605 5 317 0.0 3.2 0.00 0.00 0.00 81 1008.7
20260507012459 5 317 1.6 3.2 0.00 0.00 0.00 81 1008.7
20260507012357 5 317 3.2 3.2 0.00 0.00 0.00 81 1008.7
20260507012306 5 317 1.6 3.2 0.00 0.00 0.00 80 1008.7
20260507012159 5 317 0.0 4.8 0.00 0.00 0.00 79 1008.8
20260507012058 5 318 0.0 4.8 0.00 0.00 0.00 78 1008.7
20260507012000 5 317 1.6 4.8 0.00 0.00 0.00 78 1008.8
20260507011857 5 317 1.6 4.8 0.00 0.00 0.00 79 1008.7
20260507011758 5 317 0.0 4.8 0.00 0.00 0.00 80 1008.8
20260507011556 5 317 1.6 6.4 0.00 0.00 0.00 81 1008.8
20260507011458 5 317 1.6 6.4 0.00 0.00 0.00 80 1008.8
20260507011256 5 318 1.6 6.4 0.00 0.00 0.00 78 1008.8
20260507011159 5 318 3.2 6.4 0.00 0.00 0.00 79 1008.8
20260507011056 5 318 3.2 6.4 0.00 0.00 0.00 80 1008.8
20260507010959 5 318 3.2 6.4 0.00 0.00 0.00 79 1008.8
20260507010857 5 318 1.6 6.4 0.00 0.00 0.00 79 1008.7
20260507010757 5 318 3.2 6.4 0.00 0.00 0.00 79 1008.8
20260507010657 5 48 4.8 6.4 0.00 0.00 0.00 79 1008.8
20260507010558 5 51 0.0 8.0 0.00 0.00 0.00 79 1008.8
20260507010459 5 51 0.0 8.0 0.00 0.00 0.00 79 1008.8
20260507010257 5 51 1.6 8.0 0.00 0.00 0.00 80 1008.8
20260507010157 5 52 1.6 8.0 0.00 0.00 0.00 80 1008.8
20260507005959 5 51 1.6 8.0 0.00 0.00 0.00 80 1008.7
20260507005857 5 52 4.8 8.0 0.00 0.00 0.00 80 1008.7
20260507005757 5 52 6.4 8.0 0.00 0.00 0.00 80 1008.7
20260507005559 5 16 3.2 8.0 0.00 0.00 0.00 80 1008.7
20260507005459 5 347 3.2 6.4 0.00 0.00 0.00 80 1008.8
20260507005357 5 334 4.8 6.4 0.00 0.00 0.00 80 1008.8
20260507005257 5 314 4.8 6.4 0.00 0.00 0.00 80 1008.7
20260507004858 5 277 4.8 6.4 0.00 0.00 0.00 81 1008.7
20260507004756 5 284 1.6 11.3 0.00 0.00 0.00 80 1008.8
20260507004557 5 284 3.2 11.3 0.00 0.00 0.00 80 1008.7
20260507004459 5 284 4.8 11.3 0.00 0.00 0.00 80 1008.7
20260507004257 5 285 4.8 11.3 0.00 0.00 0.00 80 1008.6
20260507004159 5 285 0.0 11.3 0.00 0.00 0.00 80 1008.7
20260507004057 5 285 6.4 11.3 0.00 0.00 0.00 80 1008.7
20260507004000 5 284 9.7 11.3 0.00 0.00 0.00 80 1008.7
20260507003857 5 302 8.0 11.3 0.00 0.00 0.00 80 1008.7
20260507003757 5 292 4.8 11.3 0.00 0.00 0.00 79 1008.6
20260507003657 5 282 3.2 11.3 0.00 0.00 0.00 79 1008.7
20260507003557 5 281 3.2 11.3 0.00 0.00 0.00 79 1008.7
20260507003459 5 280 11.3 11.3 0.00 0.00 0.00 79 1008.6
20260507003357 5 286 4.8 11.3 0.00 0.00 0.00 79 1008.6
20260507003257 5 271 6.4 11.3 0.00 0.00 0.00 79 1008.6
20260507003157 5 260 3.2 11.3 0.00 0.00 0.00 78 1008.6
20260507003058 5 260 9.7 11.3 0.00 0.00 0.00 78 1008.6
20260507002758 5 302 8.0 11.3 0.00 0.00 0.00 78 1008.6
20260507002657 5 326 6.4 12.9 0.00 0.00 0.00 78 1008.6
20260507002557 5 275 1.6 12.9 0.00 0.00 0.00 78 1008.6
20260507002458 5 263 6.4 12.9 0.00 0.00 0.00 78 1008.6
20260507002357 5 284 9.7 12.9 0.00 0.00 0.00 79 1008.6
20260507002257 5 297 3.2 12.9 0.00 0.00 0.00 79 1008.6
20260507002158 5 294 1.6 12.9 0.00 0.00 0.00 79 1008.5
20260507002056 5 276 4.8 12.9 0.00 0.00 0.00 79 1008.5
20260507001959 5 304 4.8 12.9 0.00 0.00 0.00 79 1008.5
20260507001858 5 290 6.4 12.9 0.00 0.00 0.00 79 1008.5
20260507001657 5 310 6.4 9.7 0.00 0.00 0.00 80 1008.5
20260507001556 5 350 4.8 9.7 0.00 0.00 0.00 81 1008.5
20260507001459 5 336 4.8 11.3 0.00 0.00 0.00 81 1008.5
20260507001357 5 338 3.2 11.3 0.00 0.00 0.00 81 1008.5
20260507001257 5 340 6.4 12.9 0.00 0.00 0.00 81 1008.5
20260507001158 5 342 4.8 12.9 0.00 0.00 0.00 80 1008.5
20260507001056 5 342 4.8 12.9 0.00 0.00 0.00 80 1008.5
20260507000958 5 343 8.0 12.9 0.00 0.00 0.00 81 1008.5
20260507000857 5 342 4.8 12.9 0.00 0.00 0.00 81 1008.5
20260507000757 5 346 6.4 12.9 0.00 0.00 0.00 81 1008.5
20260507000657 5 317 6.4 12.9 0.00 0.00 0.00 81 1008.5
20260507000557 5 336 4.8 12.9 0.00 0.00 0.00 81 1008.5
20260507000458 5 330 9.7 14.5 0.00 0.00 0.00 81 1008.5
20260507000259 5 294 8.0 14.5 0.00 0.00 0.00 82 1008.5
20260507000157 5 298 4.8 14.5 0.00 0.00 0.00 82 1008.5
20260507000058 5 316 4.8 14.5 0.00 0.00 0.00 81 1008.4
20260507000003 5 315 3.2 14.5 0.00 0.00 0.00 81 1008.5
20260506235858 5 306 3.2 14.5 0.00 0.00 0.00 81 1008.5
20260506235758 5 315 8.0 14.5 0.00 0.00 0.00 81 1008.4
20260506235658 5 296 11.3 14.5 0.00 0.00 0.00 80 1008.5
20260506235500 5 316 6.4 9.7 0.00 0.00 0.00 80 1008.4
20260506235359 5 310 4.8 12.9 0.00 0.00 0.00 80 1008.4
20260506235258 5 311 6.4 12.9 0.00 0.00 0.00 80 1008.4
20260506235059 5 286 4.8 16.1 0.00 0.00 0.00 81 1008.4
20260506235004 5 273 3.2 16.1 0.00 0.00 0.00 80 1008.4
20260506234859 5 270 4.8 16.1 0.00 0.00 0.00 79 1008.4
20260506234758 5 271 4.8 16.1 0.00 0.00 0.00 79 1008.3
20260506234657 5 265 9.7 16.1 0.00 0.00 0.00 79 1008.4
20260506234601 5 286 1.6 16.1 0.00 0.00 0.00 79 1008.4
20260506234401 5 9 11.3 16.1 0.00 0.00 0.00 79 1008.3
20260506234259 5 340 14.5 16.1 0.00 0.00 0.00 79 1008.4
20260506234157 5 333 3.2 16.1 0.00 0.00 0.00 78 1008.3
20260506234059 5 333 12.9 16.1 0.00 0.00 0.00 78 1008.3
20260506234001 5 340 9.7 16.1 0.00 0.00 0.00 78 1008.3
20260506233858 5 312 12.9 16.1 0.00 0.00 0.00 78 1008.3
20260506233758 5 322 9.7 11.3 0.00 0.00 0.00 78 1008.3
20260506233658 5 294 3.2 11.3 0.00 0.00 0.00 78 1008.3
20260506233559 5 293 3.2 11.3 0.00 0.00 0.00 78 1008.2
20260506233500 5 293 1.6 11.3 0.00 0.00 0.00 78 1008.2
20260506233359 5 293 4.8 11.3 0.00 0.00 0.00 78 1008.2
20260506233057 5 306 8.0 17.7 0.00 0.00 0.00 79 1008.3
20260506233000 5 328 1.6 17.7 0.00 0.00 0.00 78 1008.2
20260506232858 5 328 4.8 17.7 0.00 0.00 0.00 78 1008.2
20260506232658 6 360 6.4 17.7 0.00 0.00 0.00 77 1008.2
20260506232559 6 292 6.4 17.7 0.00 0.00 0.00 76 1008.2
20260506232459 6 274 12.9 17.7 0.00 0.00 0.00 75 1008.2
20260506232359 6 340 6.4 17.7 0.00 0.00 0.00 74 1008.2
20260506232259 6 313 6.4 17.7 0.00 0.00 0.00 74 1008.2
20260506232159 6 338 8.0 17.7 0.00 0.00 0.00 72 1008.1
20260506232100 6 321 4.8 17.7 0.00 0.00 0.00 69 1008.1
20260506232001 6 342 12.9 17.7 0.00 0.00 0.00 69 1008.1
20260506231858 6 355 9.7 17.7 0.00 0.00 0.00 69 1008.1
20260506231758 6 327 14.5 17.7 0.00 0.00 0.00 68 1008.0
20260506231657 6 303 4.8 17.7 0.00 0.00 0.00 68 1008.1
20260506231558 6 301 11.3 17.7 0.00 0.00 0.00 66 1008.1
20260506231504 7 317 16.1 17.7 0.00 0.00 0.00 65 1008.0
20260506231359 7 259 3.2 17.7 0.00 0.00 0.00 65 1008.0
20260506231258 7 266 17.7 17.7 0.00 0.00 0.00 65 1008.0
20260506231158 7 302 8.0 12.9 0.00 0.00 0.00 65 1008.1
20260506231003 7 327 1.6 12.9 0.00 0.00 0.00 60 1008.0
20260506230858 7 336 9.7 12.9 0.00 0.00 0.00 56 1008.0
20260506230759 7 153 3.2 9.7 0.00 0.00 0.00 55 1008.0
20260506230558 7 181 3.2 9.7 0.00 0.00 0.00 55 1008.0
20260506230500 7 159 8.0 16.1 0.00 0.00 0.00 55 1008.0
20260506230358 7 141 11.3 16.1 0.00 0.00 0.00 56 1007.9
20260506230258 7 130 1.6 16.1 0.00 0.00 0.00 55 1007.9
20260506230157 7 130 3.2 16.1 0.00 0.00 0.00 55 1008.0
20260506230058 7 130 8.0 16.1 0.00 0.00 0.00 56 1007.9
20260506225858 7 126 3.2 16.1 0.00 0.00 0.00 55 1007.9
20260506225757 7 130 8.0 17.7 0.00 0.00 0.00 56 1007.9
20260506225557 7 113 6.4 17.7 0.00 0.00 0.00 56 1007.9
20260506225458 7 103 11.3 17.7 0.00 0.00 0.00 55 1007.9
20260506225357 7 125 8.0 19.3 0.00 0.00 0.00 56 1007.8
20260506225257 7 123 8.0 19.3 0.00 0.00 0.00 57 1007.8
20260506225156 7 135 4.8 19.3 0.00 0.00 0.00 56 1007.9
20260506225057 7 121 6.4 19.3 0.00 0.00 0.00 56 1007.9
20260506224958 7 113 12.9 19.3 0.00 0.00 0.00 56 1007.8
20260506224857 7 110 12.9 19.3 0.00 0.00 0.00 57 1007.8
20260506224757 7 84 3.2 19.3 0.00 0.00 0.00 57 1007.9
20260506224556 7 53 8.0 19.3 0.00 0.00 0.00 56 1007.8
20260506224459 7 119 12.9 19.3 0.00 0.00 0.00 57 1007.8
20260506224357 7 100 11.3 19.3 0.00 0.00 0.00 56 1007.8
20260506224257 8 119 16.1 19.3 0.00 0.00 0.00 57 1007.8
20260506224157 8 103 16.1 17.7 0.00 0.00 0.00 57 1007.8
20260506224057 8 40 9.7 17.7 0.00 0.00 0.00 57 1007.8
20260506224000 8 125 12.9 17.7 0.00 0.00 0.00 57 1007.8
20260506223857 7 138 4.8 9.7 0.00 0.00 0.00 58 1007.7
20260506223756 7 208 1.6 6.4 0.00 0.00 0.00 58 1007.7
20260506223657 7 207 3.2 6.4 0.00 0.00 0.00 58 1007.8
20260506223556 7 207 0.0 6.4 0.00 0.00 0.00 58 1007.7
20260506223357 7 207 1.6 6.4 0.00 0.00 0.00 60 1007.7
20260506223257 7 207 1.6 6.4 0.00 0.00 0.00 57 1007.7
20260506222958 7 191 6.4 6.4 0.00 0.00 0.00 58 1007.7
20260506222858 7 191 3.2 6.4 0.00 0.00 0.00 58 1007.8
20260506222657 7 191 3.2 8.0 0.00 0.00 0.00 58 1007.7
20260506222558 7 191 0.0 9.7 0.00 0.00 0.00 58 1007.7
20260506222459 7 191 6.4 9.7 0.00 0.00 0.00 57 1007.7
20260506222257 7 191 3.2 12.9 0.00 0.00 0.00 59 1007.7
20260506222157 7 191 0.0 12.9 0.00 0.00 0.00 59 1007.7
20260506221959 7 191 1.6 12.9 0.00 0.00 0.00 58 1007.7
20260506221856 7 191 8.0 12.9 0.00 0.00 0.00 57 1007.7
20260506221757 7 203 1.6 12.9 0.00 0.00 0.00 57 1007.7
20260506221659 7 221 4.8 12.9 0.00 0.00 0.00 58 1007.7
20260506221558 7 166 6.4 12.9 0.00 0.00 0.00 58 1007.7
20260506221500 7 154 9.7 9.7 0.00 0.00 0.00 60 1007.7
20260506221257 7 223 3.2 12.9 0.00 0.00 0.00 61 1007.6
20260506221156 7 288 1.6 12.9 0.00 0.00 0.00 60 1007.6
20260506221057 7 296 3.2 12.9 0.00 0.00 0.00 62 1007.7
20260506220959 7 301 6.4 12.9 0.00 0.00 0.00 64 1007.6
20260506220857 7 251 0.0 12.9 0.00 0.00 0.00 64 1007.7
20260506220757 7 251 3.2 12.9 0.00 0.00 0.00 64 1007.6
20260506220657 7 275 4.8 12.9 0.00 0.00 0.00 64 1007.6
20260506220557 7 321 3.2 12.9 0.00 0.00 0.00 63 1007.6
20260506220459 7 5 3.2 8.0 0.00 0.00 0.00 64 1007.6
20260506220258 7 355 4.8 8.0 0.00 0.00 0.00 64 1007.6
20260506220157 7 259 4.8 4.8 0.00 0.00 0.00 65 1007.6
20260506220058 7 259 1.6 6.4 0.00 0.00 0.00 65 1007.6
20260506215856 7 259 1.6 6.4 0.00 0.00 0.00 65 1007.6
20260506215657 7 259 0.0 6.4 0.00 0.00 0.00 65 1007.6
20260506215556 7 259 0.0 6.4 0.00 0.00 0.00 66 1007.6
20260506215458 7 259 1.6 8.0 0.00 0.00 0.00 64 1007.6
20260506215257 7 248 4.8 8.0 0.00 0.00 0.00 64 1007.6
20260506215158 7 240 0.0 8.0 0.00 0.00 0.00 64 1007.6
20260506215057 7 240 3.2 9.7 0.00 0.00 0.00 64 1007.6
20260506214958 7 240 1.6 9.7 0.00 0.00 0.00 64 1007.6
20260506214857 7 240 0.0 9.7 0.00 0.00 0.00 64 1007.6
20260506214757 7 240 3.2 9.7 0.00 0.00 0.00 63 1007.6
20260506214657 7 240 4.8 9.7 0.00 0.00 0.00 64 1007.5
20260506214557 7 237 6.4 9.7 0.00 0.00 0.00 64 1007.6
20260506214500 7 190 1.6 9.7 0.00 0.00 0.00 64 1007.5
20260506214358 7 190 1.6 9.7 0.00 0.00 0.00 63 1007.5
20260506214258 7 190 3.2 9.7 0.00 0.00 0.00 64 1007.5
20260506214157 7 324 1.6 9.7 0.00 0.00 0.00 65 1007.5
20260506213959 7 324 0.0 17.7 0.00 0.00 0.00 64 1007.5
20260506213857 7 324 1.6 17.7 0.00 0.00 0.00 64 1007.5
20260506213756 7 324 1.6 17.7 0.00 0.00 0.00 63 1007.5
20260506213657 7 324 4.8 17.7 0.00 0.00 0.00 64 1007.5
20260506213556 7 32 3.2 17.7 0.00 0.00 0.00 64 1007.5
20260506213459 7 52 6.4 17.7 0.00 0.00 0.00 64 1007.5
20260506213357 7 26 4.8 17.7 0.00 0.00 0.00 63 1007.4
20260506213257 7 52 3.2 17.7 0.00 0.00 0.00 63 1007.4
20260506213157 7 119 6.4 17.7 0.00 0.00 0.00 63 1007.4
20260506213057 6 58 11.3 17.7 0.00 0.00 0.00 64 1007.4
20260506212859 6 16 3.2 12.9 0.00 0.00 0.00 68 1007.4
20260506212757 6 9 6.4 12.9 0.00 0.00 0.00 67 1007.4
20260506212657 6 22 6.4 12.9 0.00 0.00 0.00 67 1007.4
20260506212459 6 314 1.6 12.9 0.00 0.00 0.00 71 1007.4
20260506212356 6 334 8.0 12.9 0.00 0.00 0.00 70 1007.4
20260506212256 6 336 9.7 12.9 0.00 0.00 0.00 70 1007.4
20260506212157 6 338 6.4 12.9 0.00 0.00 0.00 70 1007.4
20260506211959 6 351 3.2 12.9 0.00 0.00 0.00 69 1007.4
20260506211857 6 290 3.2 12.9 0.00 0.00 0.00 70 1007.4
20260506211757 6 294 3.2 12.9 0.00 0.00 0.00 69 1007.4
20260506211657 6 296 6.4 14.5 0.00 0.00 0.00 69 1007.4
20260506211559 6 301 8.0 14.5 0.00 0.00 0.00 69 1007.4
20260506211458 6 325 4.8 14.5 0.00 0.00 0.00 70 1007.4
20260506211357 6 280 6.4 14.5 0.00 0.00 0.00 70 1007.4
20260506211257 6 288 4.8 14.5 0.00 0.00 0.00 71 1007.4
20260506211157 6 288 11.3 14.5 0.00 0.00 0.00 70 1007.4
20260506211057 6 284 6.4 14.5 0.00 0.00 0.00 70 1007.4
20260506210757 6 344 1.6 14.5 0.00 0.00 0.00 71 1007.3
20260506210657 6 287 1.6 14.5 0.00 0.00 0.00 71 1007.3
20260506210557 6 289 3.2 14.5 0.00 0.00 0.00 71 1007.3
20260506210459 6 306 8.0 14.5 0.00 0.00 0.00 71 1007.3
20260506210357 6 282 4.8 14.5 0.00 0.00 0.00 73 1007.3
20260506210257 6 351 4.8 14.5 0.00 0.00 0.00 73 1007.3
20260506210158 6 314 4.8 14.5 0.00 0.00 0.00 72 1007.3
20260506210057 6 268 6.4 14.5 0.00 0.00 0.00 72 1007.2
20260506210000 6 340 4.8 14.5 0.00 0.00 0.00 72 1007.2
20260506205756 6 320 8.0 12.9 0.00 0.00 0.00 72 1007.2
20260506205657 6 325 8.0 12.9 0.00 0.00 0.00 72 1007.2
20260506205558 6 267 3.2 12.9 0.00 0.00 0.00 71 1007.3
20260506205459 6 290 8.0 12.9 0.00 0.00 0.00 71 1007.3
20260506205257 6 318 6.4 12.9 0.00 0.00 0.00 71 1007.2
20260506205157 6 336 4.8 12.9 0.00 0.00 0.00 70 1007.2
20260506204958 6 327 6.4 12.9 0.00 0.00 0.00 71 1007.2
20260506204856 6 292 4.8 12.9 0.00 0.00 0.00 71 1007.2
20260506204756 6 234 3.2 12.9 0.00 0.00 0.00 71 1007.2
20260506204657 6 233 4.8 12.9 0.00 0.00 0.00 70 1007.2
20260506204557 6 234 6.4 12.9 0.00 0.00 0.00 71 1007.2
20260506204500 6 232 9.7 12.9 0.00 0.00 0.00 71 1007.2
20260506204358 6 273 6.4 11.3 0.00 0.00 0.00 72 1007.1
20260506204256 6 273 1.6 12.9 0.00 0.00 0.00 71 1007.2
20260506204157 6 290 3.2 16.1 0.00 0.00 0.00 71 1007.2
20260506204056 6 283 6.4 16.1 0.00 0.00 0.00 71 1007.2
20260506204000 6 281 4.8 16.1 0.00 0.00 0.00 72 1007.1
20260506203858 6 286 3.2 16.1 0.00 0.00 0.00 73 1007.1
20260506203757 6 283 4.8 16.1 0.00 0.00 0.00 72 1007.1
20260506203657 6 333 4.8 16.1 0.00 0.00 0.00 72 1007.1
20260506203459 6 333 6.4 16.1 0.00 0.00 0.00 72 1007.1
20260506203358 6 315 12.9 16.1 0.00 0.00 0.00 72 1007.1
20260506203257 6 319 8.0 16.1 0.00 0.00 0.00 73 1007.1
20260506203158 6 302 3.2 16.1 0.00 0.00 0.00 73 1007.1
20260506203000 6 301 11.3 17.7 0.00 0.00 0.00 73 1007.0
20260506202858 6 275 6.4 17.7 0.00 0.00 0.00 73 1007.0
20260506202757 6 269 6.4 17.7 0.00 0.00 0.00 74 1007.0
20260506202657 6 298 8.0 17.7 0.00 0.00 0.00 74 1007.0
20260506202558 6 276 3.2 17.7 0.00 0.00 0.00 74 1007.0
20260506202459 6 273 4.8 17.7 0.00 0.00 0.00 74 1007.0
20260506202357 6 296 8.0 17.7 0.00 0.00 0.00 75 1007.0
20260506202257 6 290 8.0 17.7 0.00 0.00 0.00 75 1006.9
20260506202158 6 304 12.9 17.7 0.00 0.00 0.00 74 1006.9
20260506202057 6 243 14.5 17.7 0.00 0.00 0.00 74 1006.9
20260506201857 6 271 11.3 16.1 0.00 0.00 0.00 74 1006.9
20260506201757 6 253 16.1 16.1 0.00 0.00 0.00 74 1006.8
20260506201657 6 238 4.8 14.5 0.00 0.00 0.00 73 1006.9
20260506201557 6 238 6.4 14.5 0.00 0.00 0.00 74 1006.9
20260506201458 6 271 4.8 14.5 0.00 0.00 0.00 74 1006.9
20260506201356 6 274 9.7 14.5 0.00 0.00 0.00 74 1007.0
20260506201256 6 300 3.2 14.5 0.00 0.00 0.00 74 1006.9
20260506201057 6 282 9.7 14.5 0.00 0.00 0.00 74 1006.9
20260506200959 6 294 8.0 14.5 0.00 0.00 0.00 73 1006.9
20260506200858 6 282 14.5 14.5 0.00 0.00 0.00 73 1006.9
20260506200756 6 280 11.3 12.9 0.00 0.00 0.00 73 1006.8
20260506200557 6 355 9.7 12.9 0.00 0.00 0.00 72 1006.8
20260506200459 6 323 9.7 12.9 0.00 0.00 0.00 73 1006.8
20260506200357 6 329 6.4 12.9 0.00 0.00 0.00 73 1006.8
20260506200256 6 323 9.7 9.7 0.00 0.00 0.00 73 1006.8
20260506200157 6 300 4.8 9.7 0.00 0.00 0.00 73 1006.8
20260506200057 6 294 4.8 8.0 0.00 0.00 0.00 73 1006.7
20260506195959 6 311 4.8 8.0 0.00 0.00 0.00 72 1006.7
20260506195856 6 309 4.8 8.0 0.00 0.00 0.00 73 1006.8
20260506195657 6 259 1.6 12.9 0.00 0.00 0.00 72 1006.8
20260506195558 6 347 0.0 12.9 0.00 0.00 0.00 72 1006.8
20260506195458 6 347 0.0 12.9 0.00 0.00 0.00 72 1006.8
20260506195158 6 347 3.2 12.9 0.00 0.00 0.00 72 1006.7
20260506195057 6 350 3.2 12.9 0.00 0.00 0.00 73 1006.7
20260506195000 6 349 8.0 12.9 0.00 0.00 0.00 74 1006.8
20260506194857 6 298 4.8 12.9 0.00 0.00 0.00 73 1006.7
20260506194757 6 334 8.0 12.9 0.00 0.00 0.00 73 1006.7
20260506194500 6 32 6.4 12.9 0.00 0.00 0.00 74 1006.7
20260506194356 6 290 3.2 12.9 0.00 0.00 0.00 74 1006.7
20260506194258 6 290 4.8 12.9 0.00 0.00 0.00 75 1006.7
20260506194157 6 323 3.2 12.9 0.00 0.00 0.00 74 1006.7
20260506194056 6 340 12.9 12.9 0.00 0.00 0.00 74 1006.7
20260506193959 6 327 4.8 11.3 0.00 0.00 0.00 73 1006.7
20260506193758 5 350 1.6 9.7 0.00 0.00 0.00 73 1006.8
20260506193557 5 321 3.2 11.3 0.00 0.00 0.00 74 1006.7
20260506193458 5 290 3.2 11.3 0.00 0.00 0.00 74 1006.7
20260506193358 5 290 4.8 11.3 0.00 0.00 0.00 74 1006.7
20260506193157 5 287 1.6 11.3 0.00 0.00 0.00 73 1006.7
20260506193057 5 287 0.0 11.3 0.00 0.00 0.00 73 1006.7
20260506192958 5 287 3.2 11.3 0.00 0.00 0.00 73 1006.7
20260506192856 5 286 1.6 11.3 0.00 0.00 0.00 74 1006.7
20260506192757 5 288 4.8 11.3 0.00 0.00 0.00 75 1006.7
20260506192557 5 256 11.3 11.3 0.00 0.00 0.00 74 1006.7
20260506192459 5 279 4.8 8.0 0.00 0.00 0.00 74 1006.7
20260506192356 5 279 4.8 9.7 0.00 0.00 0.00 74 1006.7
20260506192256 5 278 1.6 8.0 0.00 0.00 0.00 75 1006.7
20260506192057 5 280 3.2 8.0 0.00 0.00 0.00 74 1006.7
20260506191958 5 280 1.6 8.0 0.00 0.00 0.00 74 1006.7
20260506191857 5 280 4.8 8.0 0.00 0.00 0.00 74 1006.7
20260506191757 5 281 1.6 8.0 0.00 0.00 0.00 74 1006.7
20260506191557 5 284 3.2 9.7 0.00 0.00 0.00 75 1006.7
20260506191458 5 284 3.2 9.7 0.00 0.00 0.00 75 1006.7
20260506191357 5 279 9.7 9.7 0.00 0.00 0.00 75 1006.7
20260506191257 5 287 0.0 9.7 0.00 0.00 0.00 75 1006.8
20260506191157 5 271 4.8 9.7 0.00 0.00 0.00 76 1006.7
20260506191057 5 279 6.4 9.7 0.00 0.00 0.00 76 1006.7
20260506190958 5 334 4.8 9.7 0.00 0.00 0.00 76 1006.7
20260506190657 5 275 3.2 11.3 0.00 0.00 0.00 76 1006.7
20260506190558 5 271 3.2 11.3 0.00 0.00 0.00 76 1006.7
20260506190458 5 271 4.8 11.3 0.00 0.00 0.00 76 1006.7
20260506190357 5 271 1.6 11.3 0.00 0.00 0.00 76 1006.7
20260506190258 5 271 6.4 11.3 0.00 0.00 0.00 78 1006.7
20260506190157 5 300 6.4 8.0 0.00 0.00 0.00 77 1006.7
20260506190057 5 5 6.4 8.0 0.00 0.00 0.00 77 1006.7
20260506185958 5 286 1.6 8.0 0.00 0.00 0.00 76 1006.7
20260506185858 5 286 6.4 9.7 0.00 0.00 0.00 77 1006.7
20260506185756 4 348 6.4 6.4 0.00 0.00 0.00 77 1006.7
20260506185657 4 5 0.0 6.4 0.00 0.00 0.00 77 1006.7
20260506185556 4 9 1.6 6.4 0.00 0.00 0.00 77 1006.7
20260506185356 4 9 0.0 9.7 0.00 0.00 0.00 77 1006.7
20260506185257 4 5 3.2 9.7 0.00 0.00 0.00 76 1006.7
20260506185156 4 9 3.2 9.7 0.00 0.00 0.00 77 1006.7
20260506185057 4 5 3.2 9.7 0.00 0.00 0.00 77 1006.6
20260506184959 4 9 6.4 9.7 0.00 0.00 0.00 77 1006.7
20260506184857 4 5 4.8 9.7 0.00 0.00 0.00 78 1006.6
20260506184757 4 5 3.2 9.7 0.00 0.00 0.00 78 1006.7
20260506184657 4 9 3.2 9.7 0.00 0.00 0.00 78 1006.7
20260506184557 4 348 8.0 9.7 0.00 0.00 0.00 77 1006.7
20260506184459 4 302 4.8 9.7 0.00 0.00 0.00 77 1006.7
20260506184358 4 301 1.6 9.7 0.00 0.00 0.00 77 1006.7
20260506184258 4 301 1.6 9.7 0.00 0.00 0.00 77 1006.7
20260506184158 4 302 4.8 9.7 0.00 0.00 0.00 77 1006.7
20260506184056 4 301 1.6 9.7 0.00 0.00 0.00 78 1006.7
20260506183857 4 301 4.8 11.3 0.00 0.00 0.00 77 1006.7
20260506183757 4 301 3.2 11.3 0.00 0.00 0.00 77 1006.6
20260506183656 4 304 6.4 11.3 0.00 0.00 0.00 78 1006.7
20260506183557 4 307 4.8 11.3 0.00 0.00 0.00 78 1006.7
20260506183458 4 306 3.2 11.3 0.00 0.00 0.00 78 1006.7
20260506183357 4 306 3.2 11.3 0.00 0.00 0.00 78 1006.6
20260506183257 4 306 3.2 11.3 0.00 0.00 0.00 78 1006.6
20260506183158 4 306 6.4 11.3 0.00 0.00 0.00 78 1006.6
20260506183056 4 265 4.8 11.3 0.00 0.00 0.00 78 1006.6
20260506182958 4 232 8.0 12.9 0.00 0.00 0.00 78 1006.6
20260506182859 4 269 6.4 12.9 0.00 0.00 0.00 78 1006.6
20260506182557 4 286 9.7 12.9 0.00 0.00 0.00 78 1006.6
20260506182458 4 287 6.4 8.0 0.00 0.00 0.00 78 1006.6
20260506182258 4 327 3.2 8.0 0.00 0.00 0.00 78 1006.6
20260506182157 4 327 4.8 8.0 0.00 0.00 0.00 78 1006.6
20260506181857 4 312 0.0 8.0 0.00 0.00 0.00 78 1006.6
20260506181757 4 312 1.6 8.0 0.00 0.00 0.00 78 1006.6
20260506181657 4 312 1.6 8.0 0.00 0.00 0.00 78 1006.6
20260506181557 4 312 3.2 8.0 0.00 0.00 0.00 78 1006.6
20260506181458 4 311 4.8 8.0 0.00 0.00 0.00 78 1006.6
20260506181157 4 275 9.7 9.7 0.00 0.00 0.00 79 1006.5
20260506181000 3 275 3.2 9.7 0.00 0.00 0.00 79 1006.5
20260506180858 3 297 4.8 9.7 0.00 0.00 0.00 79 1006.4
20260506180756 3 299 6.4 9.7 0.00 0.00 0.00 79 1006.4
20260506180657 3 302 1.6 9.7 0.00 0.00 0.00 79 1006.5
20260506180557 3 302 4.8 9.7 0.00 0.00 0.00 78 1006.4
20260506180458 3 302 4.8 9.7 0.00 0.00 0.00 78 1006.4
20260506180357 3 290 6.4 11.3 0.00 0.00 0.00 78 1006.4
20260506180256 3 291 11.3 11.3 0.00 0.00 0.00 79 1006.5
20260506180157 3 286 4.8 9.7 0.00 0.00 0.00 79 1006.4
20260506180057 3 294 6.4 8.0 0.00 0.00 0.00 79 1006.5
20260506175757 3 300 1.6 8.0 0.00 0.00 0.00 79 1006.4
20260506175658 3 306 3.2 8.0 0.00 0.00 0.00 79 1006.4
20260506175458 3 306 1.6 8.0 0.00 0.00 0.00 78 1006.4
20260506175256 3 306 4.8 8.0 0.00 0.00 0.00 79 1006.4
20260506175157 3 313 4.8 8.0 0.00 0.00 0.00 79 1006.4
20260506175057 3 298 3.2 8.0 0.00 0.00 0.00 79 1006.3
20260506174958 3 298 3.2 8.0 0.00 0.00 0.00 78 1006.3
20260506174858 3 298 6.4 8.0 0.00 0.00 0.00 78 1006.3
20260506174756 3 300 8.0 8.0 0.00 0.00 0.00 78 1006.3
20260506174656 3 319 6.4 8.0 0.00 0.00 0.00 78 1006.3
20260506174458 3 281 6.4 6.4 0.00 0.00 0.00 78 1006.3
20260506174258 3 309 0.0 6.4 0.00 0.00 0.00 78 1006.3
20260506174158 3 309 0.0 6.4 0.00 0.00 0.00 78 1006.4
20260506174057 3 309 3.2 6.4 0.00 0.00 0.00 78 1006.3
20260506173959 3 309 4.8 6.4 0.00 0.00 0.00 78 1006.3
20260506173757 3 320 0.0 4.8 0.00 0.00 0.00 78 1006.3
20260506173657 3 320 1.6 4.8 0.00 0.00 0.00 78 1006.3
20260506173557 3 320 1.6 4.8 0.00 0.00 0.00 78 1006.3
20260506173458 3 323 3.2 4.8 0.00 0.00 0.00 78 1006.3
20260506173357 3 328 3.2 4.8 0.00 0.00 0.00 79 1006.4
20260506173157 3 329 0.0 4.8 0.00 0.00 0.00 78 1006.3
20260506173057 3 329 0.0 4.8 0.00 0.00 0.00 78 1006.3
20260506172958 3 329 3.2 4.8 0.00 0.00 0.00 78 1006.3
20260506172857 3 329 4.8 4.8 0.00 0.00 0.00 78 1006.3
20260506172758 3 329 1.6 4.8 0.00 0.00 0.00 78 1006.3
20260506172657 3 329 0.0 4.8 0.00 0.00 0.00 77 1006.3
20260506172558 3 329 1.6 4.8 0.00 0.00 0.00 77 1006.3
20260506172458 3 338 3.2 4.8 0.00 0.00 0.00 77 1006.3
20260506172357 3 339 4.8 4.8 0.00 0.00 0.00 77 1006.2
20260506172256 3 345 0.0 4.8 0.00 0.00 0.00 78 1006.2
20260506172156 3 346 1.6 4.8 0.00 0.00 0.00 78 1006.3
20260506172057 3 346 0.0 4.8 0.00 0.00 0.00 78 1006.2
20260506172000 3 346 0.0 6.4 0.00 0.00 0.00 78 1006.2
20260506171856 3 346 0.0 6.4 0.00 0.00 0.00 78 1006.2
20260506171757 3 346 1.6 6.4 0.00 0.00 0.00 77 1006.1
20260506171657 3 345 4.8 6.4 0.00 0.00 0.00 77 1006.2
20260506171558 3 355 3.2 6.4 0.00 0.00 0.00 78 1006.1
20260506171357 3 355 3.2 6.4 0.00 0.00 0.00 77 1006.1
20260506171157 3 355 3.2 6.4 0.00 0.00 0.00 78 1006.1
20260506171056 3 10 3.2 3.2 0.00 0.00 0.00 78 1006.1
20260506170959 3 10 1.6 3.2 0.00 0.00 0.00 78 1006.1
20260506170856 3 10 1.6 3.2 0.00 0.00 0.00 78 1006.1
20260506170757 3 10 1.6 3.2 0.00 0.00 0.00 78 1006.1
20260506170658 3 10 1.6 3.2 0.00 0.00 0.00 78 1006.1
20260506170458 3 10 0.0 3.2 0.00 0.00 0.00 78 1006.1
20260506170357 3 10 0.0 3.2 0.00 0.00 0.00 78 1006.1
20260506170300 3 10 0.0 3.2 0.00 0.00 0.00 78 1006.1
20260506170157 3 10 3.2 3.2 0.00 0.00 0.00 78 1006.1
20260506170057 3 10 0.0 3.2 0.00 0.00 0.00 78 1006.1
20260506170000 3 10 0.0 3.2 0.00 0.00 0.00 78 1006.1
20260506165858 3 10 0.0 3.2 0.00 0.00 0.00 78 1006.1
20260506165757 3 10 1.6 3.2 0.00 0.00 0.00 78 1006.1
20260506165657 3 10 0.0 3.2 0.00 0.00 0.00 78 1006.1
20260506165556 3 10 1.6 4.8 0.00 0.00 0.00 78 1006.1
20260506165458 3 10 3.2 4.8 0.00 0.00 0.00 78 1006.0
20260506165357 3 11 1.6 4.8 0.00 0.00 0.00 78 1006.0
20260506165256 3 10 0.0 4.8 0.00 0.00 0.00 78 1006.1
20260506165157 3 10 0.0 4.8 0.00 0.00 0.00 78 1006.1
20260506165056 3 10 0.0 4.8 0.00 0.00 0.00 78 1006.0
20260506164959 3 10 1.6 4.8 0.00 0.00 0.00 78 1006.0
20260506164856 3 10 1.6 4.8 0.00 0.00 0.00 78 1006.0
20260506164757 3 10 1.6 4.8 0.00 0.00 0.00 78 1006.0
20260506164656 3 10 1.6 3.2 0.00 0.00 0.00 78 1006.0
20260506164557 3 10 1.6 3.2 0.00 0.00 0.00 78 1006.0
20260506164458 3 10 1.6 3.2 0.00 0.00 0.00 78 1006.0
20260506164358 3 10 1.6 3.2 0.00 0.00 0.00 78 1006.0
20260506164156 3 10 0.0 3.2 0.00 0.00 0.00 78 1006.0
20260506164057 3 10 1.6 3.2 0.00 0.00 0.00 78 1005.9
20260506163958 3 10 3.2 4.8 0.00 0.00 0.00 78 1005.9
20260506163858 3 10 0.0 4.8 0.00 0.00 0.00 78 1005.9
20260506163758 3 10 1.6 4.8 0.00 0.00 0.00 78 1005.9
20260506163657 3 10 0.0 4.8 0.00 0.00 0.00 78 1005.9
20260506163557 3 10 1.6 4.8 0.00 0.00 0.00 78 1005.9
20260506163356 3 10 1.6 4.8 0.00 0.00 0.00 78 1005.9
20260506163256 3 10 1.6 4.8 0.00 0.00 0.00 78 1005.9
20260506163157 3 10 3.2 4.8 0.00 0.00 0.00 79 1005.8
20260506163058 3 10 1.6 3.2 0.00 0.00 0.00 78 1005.8
20260506162959 3 10 1.6 3.2 0.00 0.00 0.00 78 1005.8
20260506162857 3 10 0.0 3.2 0.00 0.00 0.00 78 1005.8
20260506162757 3 10 1.6 3.2 0.00 0.00 0.00 78 1005.8
20260506162657 3 11 1.6 3.2 0.00 0.00 0.00 78 1005.7
20260506162556 3 11 1.6 3.2 0.00 0.00 0.00 78 1005.7
20260506162357 3 11 0.0 3.2 0.00 0.00 0.00 78 1005.7
20260506162257 3 11 1.6 3.2 0.00 0.00 0.00 78 1005.7
20260506162156 3 11 1.6 3.2 0.00 0.00 0.00 79 1005.7
20260506162057 3 11 1.6 1.6 0.00 0.00 0.00 79 1005.7
20260506161959 3 11 0.0 1.6 0.00 0.00 0.00 80 1005.7
20260506161856 3 11 0.0 1.6 0.00 0.00 0.00 80 1005.7
20260506161757 3 11 0.0 1.6 0.00 0.00 0.00 80 1005.7
20260506161657 3 11 1.6 1.6 0.00 0.00 0.00 80 1005.7
20260506161556 3 11 1.6 1.6 0.00 0.00 0.00 80 1005.7
20260506161459 2 11 0.0 1.6 0.00 0.00 0.00 80 1005.7
20260506161357 2 11 0.0 1.6 0.00 0.00 0.00 80 1005.7
20260506161257 2 10 0.0 1.6 0.00 0.00 0.00 80 1005.7
20260506161157 2 10 0.0 1.6 0.00 0.00 0.00 80 1005.7
20260506161056 2 10 1.6 3.2 0.00 0.00 0.00 80 1005.7
20260506160957 2 11 1.6 3.2 0.00 0.00 0.00 80 1005.7
20260506160857 2 10 0.0 3.2 0.00 0.00 0.00 80 1005.7
20260506160758 2 11 0.0 3.2 0.00 0.00 0.00 80 1005.7
20260506160556 2 11 0.0 3.2 0.00 0.00 0.00 80 1005.6
20260506160357 2 11 0.0 3.2 0.00 0.00 0.00 80 1005.7
20260506160257 2 11 0.0 3.2 0.00 0.00 0.00 80 1005.6
20260506160056 2 10 0.0 3.2 0.00 0.00 0.00 80 1005.6
20260506160000 2 10 0.0 3.2 0.00 0.00 0.00 80 1005.6
20260506155857 2 10 0.0 3.2 0.00 0.00 0.00 80 1005.7
20260506155756 2 10 0.0 3.2 0.00 0.00 0.00 80 1005.6
20260506155656 2 10 0.0 3.2 0.00 0.00 0.00 80 1005.7
20260506155558 2 10 1.6 3.2 0.00 0.00 0.00 80 1005.6
20260506155459 2 10 0.0 3.2 0.00 0.00 0.00 80 1005.6
20260506155356 2 10 3.2 3.2 0.00 0.00 0.00 80 1005.6
20260506155158 2 10 0.0 1.6 0.00 0.00 0.00 80 1005.6
20260506154959 2 10 0.0 1.6 0.00 0.00 0.00 80 1005.6
20260506154858 2 10 0.0 1.6 0.00 0.00 0.00 80 1005.6
20260506154756 2 10 0.0 1.6 0.00 0.00 0.00 80 1005.6
20260506154657 2 10 0.0 1.6 0.00 0.00 0.00 80 1005.6
20260506154557 2 10 0.0 1.6 0.00 0.00 0.00 80 1005.6
20260506154459 2 10 0.0 1.6 0.00 0.00 0.00 80 1005.6
20260506154357 2 10 0.0 3.2 0.00 0.00 0.00 80 1005.6
20260506154257 2 10 0.0 3.2 0.00 0.00 0.00 80 1005.6
20260506154157 2 10 1.6 3.2 0.00 0.00 0.00 80 1005.6
20260506153957 2 10 0.0 3.2 0.00 0.00 0.00 80 1005.6
20260506153856 2 10 0.0 3.2 0.00 0.00 0.00 80 1005.6
20260506153657 2 10 0.0 3.2 0.00 0.00 0.00 80 1005.6
20260506153557 2 10 3.2 4.8 0.00 0.00 0.00 80 1005.6
20260506153459 2 10 0.0 4.8 0.00 0.00 0.00 80 1005.5
20260506153256 2 10 1.6 4.8 0.00 0.00 0.00 80 1005.5
20260506153156 2 10 1.6 6.4 0.00 0.00 0.00 80 1005.5
20260506152958 2 10 1.6 6.4 0.00 0.00 0.00 81 1005.6
20260506152856 2 10 1.6 6.4 0.00 0.00 0.00 83 1005.6
20260506152758 2 10 1.6 6.4 0.00 0.00 0.00 80 1005.6
20260506152656 2 10 3.2 8.0 0.00 0.00 0.00 79 1005.6
20260506152557 2 10 3.2 8.0 0.00 0.00 0.00 80 1005.6
20260506152458 2 10 3.2 8.0 0.00 0.00 0.00 80 1005.6
20260506152357 2 11 1.6 8.0 0.00 0.00 0.00 82 1005.5
20260506152257 2 11 6.4 8.0 0.00 0.00 0.00 81 1005.5
20260506152156 2 10 3.2 8.0 0.00 0.00 0.00 80 1005.5
20260506152056 2 10 4.8 8.0 0.00 0.00 0.00 80 1005.5
20260506151959 2 10 6.4 8.0 0.00 0.00 0.00 79 1005.5
20260506151857 2 11 6.4 8.0 0.00 0.00 0.00 79 1005.6
20260506151757 2 15 4.8 8.0 0.00 0.00 0.00 79 1005.5
20260506151656 2 360 4.8 8.0 0.00 0.00 0.00 79 1005.5
20260506151556 2 9 4.8 8.0 0.00 0.00 0.00 79 1005.5
20260506151458 2 350 4.8 8.0 0.00 0.00 0.00 78 1005.5
20260506151357 2 339 6.4 6.4 0.00 0.00 0.00 78 1005.5
20260506151257 2 109 3.2 4.8 0.00 0.00 0.00 78 1005.5
20260506151156 2 133 3.2 4.8 0.00 0.00 0.00 78 1005.5
20260506151058 2 142 1.6 4.8 0.00 0.00 0.00 77 1005.5
20260506150959 2 142 3.2 3.2 0.00 0.00 0.00 76 1005.5
20260506150756 2 142 1.6 3.2 0.00 0.00 0.00 76 1005.5
20260506150656 2 142 1.6 3.2 0.00 0.00 0.00 76 1005.5
20260506150558 2 142 1.6 1.6 0.00 0.00 0.00 77 1005.5
20260506150500 2 142 0.0 3.2 0.00 0.00 0.00 77 1005.5
20260506150358 2 142 0.0 3.2 0.00 0.00 0.00 77 1005.4
20260506150304 2 142 1.6 3.2 0.00 0.00 0.00 76 1005.4
20260506150158 2 142 1.6 3.2 0.00 0.00 0.00 77 1005.4
20260506150056 2 142 0.0 3.2 0.00 0.00 0.00 77 1005.4
20260506145958 2 142 0.0 3.2 0.00 0.00 0.00 76 1005.4
20260506145657 2 142 1.6 3.2 0.00 0.00 0.00 75 1005.4
20260506145556 3 142 3.2 3.2 0.00 0.00 0.00 75 1005.4
20260506145459 3 142 1.6 1.6 0.00 0.00 0.00 75 1005.3
20260506145358 3 142 0.0 1.6 0.00 0.00 0.00 75 1005.3
20260506145257 3 142 0.0 3.2 0.00 0.00 0.00 75 1005.3
20260506145157 3 142 0.0 3.2 0.00 0.00 0.00 75 1005.3
20260506145056 3 142 0.0 3.2 0.00 0.00 0.00 75 1005.3
20260506144959 3 142 0.0 4.8 0.00 0.00 0.00 75 1005.3
20260506144857 3 142 0.0 4.8 0.00 0.00 0.00 75 1005.3
20260506144658 3 142 1.6 4.8 0.00 0.00 0.00 75 1005.3
20260506144556 3 142 0.0 4.8 0.00 0.00 0.00 75 1005.3
20260506144458 3 142 1.6 4.8 0.00 0.00 0.00 75 1005.3
20260506144357 3 142 1.6 4.8 0.00 0.00 0.00 75 1005.3
20260506144257 3 142 1.6 4.8 0.00 0.00 0.00 75 1005.3
20260506144156 3 142 1.6 4.8 0.00 0.00 0.00 76 1005.3
20260506144056 2 142 3.2 4.8 0.00 0.00 0.00 77 1005.4
20260506143959 2 142 3.2 3.2 0.00 0.00 0.00 76 1005.3
20260506143857 2 142 3.2 3.2 0.00 0.00 0.00 76 1005.3
20260506143756 2 142 0.0 1.6 0.00 0.00 0.00 75 1005.3
20260506143656 2 142 1.6 1.6 0.00 0.00 0.00 75 1005.4
20260506143556 2 142 1.6 1.6 0.00 0.00 0.00 75 1005.3
20260506143458 2 142 0.0 1.6 0.00 0.00 0.00 75 1005.3
20260506143357 2 142 0.0 1.6 0.00 0.00 0.00 75 1005.4
20260506143257 2 142 0.0 1.6 0.00 0.00 0.00 75 1005.3
20260506143156 2 142 0.0 1.6 0.00 0.00 0.00 75 1005.3
20260506143058 2 142 0.0 1.6 0.00 0.00 0.00 75 1005.3
20260506142958 2 142 0.0 1.6 0.00 0.00 0.00 75 1005.3
20260506142858 2 142 1.6 1054.1 4.52 0.00 0.00 75
20260506142757 2 142 1.6 1.6 0.00 0.00 0.00 75 1005.3
20260506142656 2 142 1.6 1.6 0.00 0.00 0.00 75 1005.3
20260506142557 2 142 0.0 1.6 0.00 0.00 0.00 75 1005.3
20260506142458 2 142 0.0 3.2 0.00 0.00 0.00 75 1005.3
20260506142358 2 142 0.0 3.2 0.00 0.00 0.00 75 1005.3
20260506142257 2 142 1.6 3.2 0.00 0.00 0.00 74 1005.3
20260506142157 2 142 0.0 4.8 0.00 0.00 0.00 74 1005.3
20260506142057 2 142 0.0 4.8 0.00 0.00 0.00 74 1005.4
20260506141958 2 142 0.0 4.8 0.00 0.00 0.00 74 1005.4
20260506141856 2 142 0.0 4.8 0.00 0.00 0.00 74 1005.3
20260506141757 2 142 1.6 4.8 0.00 0.00 0.00 74 1005.3
20260506141657 2 142 1.6 4.8 0.00 0.00 0.00 74 1005.3
20260506141556 2 142 1.6 4.8 0.00 0.00 0.00 74 1005.3
20260506141356 2 142 1.6 6.4 0.00 0.00 0.00 74 1005.3
20260506141256 2 142 3.2 6.4 0.00 0.00 0.00 74 1005.4
20260506141156 2 142 1.6 6.4 0.00 0.00 0.00 74 1005.3
20260506141056 2 142 3.2 6.4 0.00 0.00 0.00 74 1005.3
20260506140959 2 142 3.2 6.4 0.00 0.00 0.00 74 1005.3
20260506140858 2 142 1.6 6.4 0.00 0.00 0.00 74 1005.3
20260506140757 2 142 1.6 6.4 0.00 0.00 0.00 74 1005.3
20260506140656 2 142 3.2 6.4 0.00 0.00 0.00 74 1005.3
20260506140556 2 142 4.8 6.4 0.00 0.00 0.00 74 1005.3
20260506140356 2 142 6.4 6.4 0.00 0.00 0.00 74 1005.3
20260506140257 2 142 4.8 6.4 0.00 0.00 0.00 74 1005.3
20260506140157 2 142 4.8 6.4 0.00 0.00 0.00 74 1005.2
20260506140058 2 142 3.2 6.4 0.00 0.00 0.00 74 1005.2
20260506135958 2 142 6.4 6.4 0.00 0.00 0.00 74 1005.2
20260506135556 2 142 4.8 6.4 0.00 0.00 0.00 74 1005.2
20260506135458 2 142 3.2 4.8 0.00 0.00 0.00 74 1005.2
20260506135357 2 143 4.8 4.8 0.00 0.00 0.00 74 1005.2
20260506135257 2 143 3.2 4.8 0.00 0.00 0.00 74 1005.2
20260506135056 2 143 3.2 4.8 0.00 0.00 0.00 74 1005.2
20260506135000 2 143 3.2 4.8 0.00 0.00 0.00 74 1005.3
20260506134856 2 143 1.6 4.8 0.00 0.00 0.00 74 1005.2
20260506134757 2 143 1.6 4.8 0.00 0.00 0.00 74 1005.2
20260506134657 2 143 3.2 4.8 0.00 0.00 0.00 74 1005.2
20260506134557 2 143 3.2 4.8 0.00 0.00 0.00 74 1005.2
20260506134458 2 143 3.2 4.8 0.00 0.00 0.00 74 1005.2
20260506134356 2 143 3.2 4.8 0.00 0.00 0.00 74 1005.2
20260506134156 3 142 1.6 6.4 0.00 0.00 0.00 74 1005.2
20260506134057 3 142 0.0 6.4 0.00 0.00 0.00 74 1005.2
20260506133959 3 142 1.6 6.4 0.00 0.00 0.00 74 1005.2
20260506133857 3 142 1.6 6.4 0.00 0.00 0.00 74 1005.2
20260506133756 3 142 3.2 6.4 0.00 0.00 0.00 74 1005.2
20260506133658 2 142 1.6 6.4 0.00 0.00 0.00 74 1005.2
20260506133458 2 142 3.2 6.4 0.00 0.00 0.00 74 1005.2
20260506133357 2 142 1.6 6.4 0.00 0.00 0.00 74 1005.2
20260506133256 2 142 1.6 6.4 0.00 0.00 0.00 74 1005.2
20260506133157 2 142 4.8 6.4 0.00 0.00 0.00 74 1005.2
20260506132856 3 142 3.2 4.8 0.00 0.00 0.00 74 1005.2
20260506132757 3 142 3.2 4.8 0.00 0.00 0.00 73 1005.2
20260506132658 3 142 1.6 4.8 0.00 0.00 0.00 73 1005.2
20260506132557 3 142 1.6 4.8 0.00 0.00 0.00 74 1005.2
20260506132458 3 142 0.0 4.8 0.00 0.00 0.00 73 1005.2
20260506132358 3 142 0.0 4.8 0.00 0.00 0.00 73 1005.2
20260506132256 3 142 0.0 4.8 0.00 0.00 0.00 73 1005.1
20260506132156 3 142 1.6 4.8 0.00 0.00 0.00 73 1005.2
20260506132057 2 142 1.6 4.8 0.00 0.00 0.00 73 1005.2
20260506131958 2 142 3.2 4.8 0.00 0.00 0.00 74 1005.2
20260506131856 2 142 3.2 4.8 0.00 0.00 0.00 74 1005.2
20260506131756 2 142 3.2 4.8 0.00 0.00 0.00 74 1005.2
20260506131657 2 142 4.8 4.8 0.00 0.00 0.00 74 1005.2
20260506131557 2 142 4.8 4.8 0.00 0.00 0.00 74 1005.2
20260506131459 2 142 3.2 4.8 0.00 0.00 0.00 74 1005.1
20260506131357 2 142 3.2 4.8 0.00 0.00 0.00 74 1005.1
20260506131257 2 142 1.6 4.8 0.00 0.00 0.00 74 1005.1
20260506131057 2 142 3.2 8.0 0.00 0.00 0.00 74 1005.1
20260506130757 2 142 3.2 8.0 0.00 0.00 0.00 74 1005.1
20260506130657 2 142 1.6 8.0 0.00 0.00 0.00 74 1005.1
20260506130556 2 142 3.2 8.0 0.00 0.00 0.00 74 1005.1
20260506130458 2 142 3.2 8.0 0.00 0.00 0.00 74 1005.1
20260506130358 2 142 4.8 8.0 0.00 0.00 0.00 74 1005.1
20260506130257 2 142 6.4 9.7 0.00 0.00 0.00 74 1005.1
20260506130056 3 153 4.8 9.7 0.00 0.00 0.00 73 1005.1
20260506125958 3 153 6.4 9.7 0.00 0.00 0.00 73 1005.1
20260506125856 3 139 3.2 6.4 0.00 0.00 0.00 73 1005.1
20260506125755 3 111 1.6 4.8 0.00 0.00 0.00 73 1005.0
20260506125656 3 111 3.2 4.8 0.00 0.00 0.00 73 1005.0
20260506125556 3 111 1.6 4.8 0.00 0.00 0.00 73 1005.0
20260506125457 3 111 1.6 4.8 0.00 0.00 0.00 73 1005.0
20260506125356 3 111 0.0 4.8 0.00 0.00 0.00 73 1005.0
20260506125256 3 111 0.0 6.4 0.00 0.00 0.00 73 1005.0
20260506125155 3 111 1.6 6.4 0.00 0.00 0.00 73 1005.0
20260506125055 3 111 1.6 6.4 0.00 0.00 0.00 73 1005.0
20260506124958 3 111 3.2 6.4 0.00 0.00 0.00 73 1005.0
20260506124856 3 111 3.2 6.4 0.00 0.00 0.00 73 1005.0
20260506124755 3 111 3.2 6.4 0.00 0.00 0.00 73 1005.0
20260506124655 3 111 1.6 6.4 0.00 0.00 0.00 73 1005.0
20260506124457 3 111 4.8 6.4 0.00 0.00 0.00 73 1005.0
20260506124355 3 109 4.8 6.4 0.00 0.00 0.00 73 1005.0
20260506124256 3 108 3.2 6.4 0.00 0.00 0.00 73 1005.0
20260506124155 3 109 3.2 6.4 0.00 0.00 0.00 73 1005.0
20260506124058 3 108 3.2 6.4 0.00 0.00 0.00 73 1005.0
20260506123957 3 108 3.2 6.4 0.00 0.00 0.00 73 1005.0
20260506123856 3 108 4.8 6.4 0.00 0.00 0.00 73 1005.0
20260506123757 3 102 6.4 6.4 0.00 0.00 0.00 73 1005.0
20260506123655 3 98 3.2 6.4 0.00 0.00 0.00 73 1005.0
20260506123556 3 98 3.2 6.4 0.00 0.00 0.00 73 1005.0
20260506123456 3 98 3.2 6.4 0.00 0.00 0.00 73 1005.0
20260506123355 3 94 3.2 6.4 0.00 0.00 0.00 73 1005.0
20260506123256 3 351 3.2 6.4 0.00 0.00 0.00 73 1005.0
20260506123155 3 344 3.2 6.4 0.00 0.00 0.00 72 1004.9
20260506123056 3 344 1.6 6.4 0.00 0.00 0.00 72 1004.9
20260506122856 3 355 4.8 6.4 0.00 0.00 0.00 72 1004.9
20260506122756 3 355 3.2 6.4 0.00 0.00 0.00 72 1004.9
20260506122655 3 355 1.6 6.4 0.00 0.00 0.00 72 1004.9
20260506122556 3 355 4.8 6.4 0.00 0.00 0.00 72 1004.9
20260506122457 3 355 4.8 6.4 0.00 0.00 0.00 72 1004.9
20260506122357 3 355 6.4 6.4 0.00 0.00 0.00 72 1004.9
20260506122255 3 17 3.2 6.4 0.00 0.00 0.00 72 1004.8
20260506122155 3 17 1.6 6.4 0.00 0.00 0.00 72 1004.8
20260506121959 3 17 4.8 6.4 0.00 0.00 0.00 72 1004.8
20260506121856 3 107 3.2 4.8 0.00 0.00 0.00 73 1004.8
20260506121756 3 107 1.6 4.8 0.00 0.00 0.00 73 1004.7
20260506121656 3 107 4.8 4.8 0.00 0.00 0.00 73 1004.7
20260506121556 3 113 4.8 4.8 0.00 0.00 0.00 73 1004.8
20260506121458 3 114 0.0 3.2 0.00 0.00 0.00 73 1004.8
20260506121356 3 114 1.6 3.2 0.00 0.00 0.00 74 1004.8
20260506121255 3 114 1.6 3.2 0.00 0.00 0.00 73 1004.8
20260506121156 3 114 0.0 3.2 0.00 0.00 0.00 72 1004.7
20260506121056 3 114 1.6 3.2 0.00 0.00 0.00 72 1004.7
20260506120958 3 114 1.6 3.2 0.00 0.00 0.00 72 1004.8
20260506120556 3 114 0.0 6.4 0.00 0.00 0.00 72 1004.7
20260506120456 3 114 1.6 6.4 0.00 0.00 0.00 72 1004.7
20260506120358 3 114 1.6 6.4 0.00 0.00 0.00 72 1004.7
20260506120256 3 114 1.6 12.9 0.00 0.00 0.00 72 1004.7
20260506120158 3 114 1.6 12.9 0.00 0.00 0.00 71 1004.7
20260506120057 3 114 3.2 12.9 0.00 0.00 0.00 71 1004.7
20260506115957 3 114 3.2 12.9 0.00 0.00 0.00 71 1004.7
20260506115855 3 114 3.2 12.9 0.00 0.00 0.00 71 1004.7
20260506115655 3 109 6.4 12.9 0.00 0.00 0.00 70 1004.7
20260506115556 3 52 4.8 12.9 0.00 0.00 0.00 71 1004.6
20260506115458 3 355 9.7 12.9 0.00 0.00 0.00 72 1004.7
20260506115255 3 286 1.6 8.0 0.00 0.00 0.00 72 1004.7
20260506115156 3 286 1.6 8.0 0.00 0.00 0.00 72 1004.7
20260506115056 3 286 3.2 8.0 0.00 0.00 0.00 72 1004.6
20260506114957 3 284 3.2 8.0 0.00 0.00 0.00 72 1004.7
20260506114856 3 284 0.0 8.0 0.00 0.00 0.00 72 1004.6
20260506114756 3 284 4.8 8.0 0.00 0.00 0.00 72 1004.7
20260506114657 3 286 6.4 6.4 0.00 0.00 0.00 72 1004.6
20260506114556 3 51 1.6 3.2 0.00 0.00 0.00 72 1004.6
20260506114457 3 51 1.6 3.2 0.00 0.00 0.00 72 1004.7
20260506114356 3 51 0.0 4.8 0.00 0.00 0.00 72 1004.6
20260506114256 3 51 0.0 4.8 0.00 0.00 0.00 72 1004.6
20260506114155 3 51 3.2 4.8 0.00 0.00 0.00 72 1004.6
20260506114056 3 51 0.0 4.8 0.00 0.00 0.00 72 1004.6
20260506113958 3 51 0.0 4.8 0.00 0.00 0.00 72 1004.6
20260506113655 3 51 3.2 4.8 0.00 0.00 0.00 72 1004.6
20260506113555 3 52 3.2 4.8 0.00 0.00 0.00 72 1004.6
20260506113457 3 51 3.2 4.8 0.00 0.00 0.00 72 1004.6
20260506113355 3 51 1.6 4.8 0.00 0.00 0.00 72 1004.7
20260506113156 3 35 4.8 4.8 0.00 0.00 0.00 72 1004.7
20260506113056 3 319 3.2 4.8 0.00 0.00 0.00 72 1004.7
20260506112855 3 318 3.2 4.8 0.00 0.00 0.00 72 1004.6
20260506112756 3 317 3.2 3.2 0.00 0.00 0.00 72 1004.6
20260506112656 3 317 3.2 4.8 0.00 0.00 0.00 72 1004.6
20260506112555 3 318 1.6 4.8 0.00 0.00 0.00 72 1004.6
20260506112356 3 318 0.0 4.8 0.00 0.00 0.00 71 1004.7
20260506112256 3 318 0.0 4.8 0.00 0.00 0.00 71 1004.6
20260506112156 3 318 0.0 4.8 0.00 0.00 0.00 71 1004.6
20260506111958 3 318 1.6 4.8 0.00 0.00 0.00 71 1004.7
20260506111855 3 318 4.8 4.8 0.00 0.00 0.00 71 1004.7
20260506111756 3 317 3.2 4.8 0.00 0.00 0.00 71 1004.7
20260506111656 3 317 3.2 3.2 0.00 0.00 0.00 72 1004.7
20260506111457 3 317 1.6 3.2 0.00 0.00 0.00 71 1004.7
20260506111355 3 317 1.6 3.2 0.00 0.00 0.00 71 1004.7
20260506111255 3 317 3.2 3.2 0.00 0.00 0.00 71 1004.7
20260506111156 3 317 1.6 3.2 0.00 0.00 0.00 71 1004.7
20260506111056 3 317 0.0 3.2 0.00 0.00 0.00 71 1004.7
20260506110958 3 317 1.6 3.2 0.00 0.00 0.00 70 1004.7
20260506110855 3 317 1.6 3.2 0.00 0.00 0.00 70 1004.7
20260506110655 3 317 1.6 4.8 0.00 0.00 0.00 70 1004.7
20260506110556 3 317 1.6 4.8 0.00 0.00 0.00 70 1004.7
20260506110457 3 317 1.6 4.8 0.00 0.00 0.00 70 1004.7
20260506110256 3 317 0.0 4.8 0.00 0.00 0.00 70 1004.7
20260506110156 3 317 1.6 4.8 0.00 0.00 0.00 70 1004.6
20260506110057 3 317 0.0 4.8 0.00 0.00 0.00 69 1004.6
20260506105957 3 317 1.6 4.8 0.00 0.00 0.00 69 1004.6
20260506105856 3 317 1.6 6.4 0.00 0.00 0.00 69 1004.6
20260506105756 3 317 3.2 6.4 0.00 0.00 0.00 69 1004.6
20260506105656 3 317 3.2 6.4 0.00 0.00 0.00 69 1004.6
20260506105555 3 317 3.2 6.4 0.00 0.00 0.00 69 1004.6
20260506105457 3 317 3.2 6.4 0.00 0.00 0.00 69 1004.5
20260506105255 3 317 1.6 6.4 0.00 0.00 0.00 70 1004.5
20260506105056 3 317 4.8 6.4 0.00 0.00 0.00 69 1004.5
20260506104958 3 317 6.4 6.4 0.00 0.00 0.00 69 1004.5
20260506104856 3 280 3.2 6.4 0.00 0.00 0.00 70 1004.5
20260506104755 3 229 1.6 6.4 0.00 0.00 0.00 70 1004.5
20260506104556 3 144 3.2 3.2 0.00 0.00 0.00 70 1004.5
20260506104457 3 144 1.6 3.2 0.00 0.00 0.00 70 1004.5
20260506104356 3 144 3.2 3.2 0.00 0.00 0.00 70 1004.5
20260506104255 3 144 0.0 3.2 0.00 0.00 0.00 70 1004.4
20260506104156 3 144 1.6 6.4 0.00 0.00 0.00 70 1004.5
20260506104056 3 144 1.6 6.4 0.00 0.00 0.00 71 1004.5
20260506103959 3 144 1.6 6.4 0.00 0.00 0.00 71 1004.5
20260506103856 3 144 1.6 6.4 0.00 0.00 0.00 70 1004.5
20260506103657 3 144 0.0 6.4 0.00 0.00 0.00 70 1004.4
20260506103556 3 144 0.0 6.4 0.00 0.00 0.00 69 1004.4
20260506103355 3 144 1.6 6.4 0.00 0.00 0.00 69 1004.4
20260506102958 3 147 1.6 4.8 0.00 0.00 0.00 71 1004.4
20260506102855 3 147 1.6 4.8 0.00 0.00 0.00 71 1004.3
20260506102656 3 147 1.6 4.8 0.00 0.00 0.00 71 1004.5
20260506102555 3 147 3.2 4.8 0.00 0.00 0.00 71 1004.4
20260506102457 3 147 1.6 4.8 0.00 0.00 0.00 71 1004.4
20260506102356 3 147 1.6 4.8 0.00 0.00 0.00 70 1004.5
20260506102257 3 147 0.0 4.8 0.00 0.00 0.00 71 1004.4
20260506102156 3 147 3.2 4.8 0.00 0.00 0.00 70 1004.4
20260506102054 3 147 4.8 4.8 0.00 0.00 0.00 70 1004.5
20260506101957 3 147 3.2 4.8 0.00 0.00 0.00 70 1004.4
20260506101855 3 147 0.0 6.4 0.00 0.00 0.00 70 1004.5
20260506101756 3 147 1.6 6.4 0.00 0.00 0.00 70 1004.5
20260506101655 3 147 4.8 6.4 0.00 0.00 0.00 70 1004.4
20260506101555 3 147 1.6 6.4 0.00 0.00 0.00 70 1004.4
20260506101356 3 147 0.0 6.4 0.00 0.00 0.00 70 1004.4
20260506101255 3 147 1.6 6.4 0.00 0.00 0.00 70 1004.3
20260506101156 3 147 1.6 6.4 0.00 0.00 0.00 70 1004.3
20260506100957 3 147 4.8 8.0 0.00 0.00 0.00 69 1004.3
20260506100857 3 147 3.2 8.0 0.00 0.00 0.00 69 1004.3
20260506100757 3 147 1.6 8.0 0.00 0.00 0.00 69 1004.3
20260506100656 3 147 1.6 8.0 0.00 0.00 0.00 69 1004.3
20260506100556 3 147 4.8 8.0 0.00 0.00 0.00 68 1004.3
20260506100457 3 146 3.2 8.0 0.00 0.00 0.00 68 1004.2
20260506100356 3 146 3.2 8.0 0.00 0.00 0.00 68 1004.2
20260506100255 3 146 4.8 8.0 0.00 0.00 0.00 68 1004.2
20260506100156 4 279 3.2 8.0 0.00 0.00 0.00 67 1004.2
20260506100056 4 286 6.4 6.4 0.00 0.00 0.00 67 1004.1
20260506095959 4 318 3.2 6.4 0.00 0.00 0.00 68 1004.2
20260506095856 4 319 1.6 8.0 0.00 0.00 0.00 67 1004.2
20260506095756 4 318 3.2 12.9 0.00 0.00 0.00 67 1004.2
20260506095656 4 318 3.2 12.9 0.00 0.00 0.00 67 1004.2
20260506095458 4 319 1.6 12.9 0.00 0.00 0.00 67 1004.2
20260506095356 4 317 1.6 12.9 0.00 0.00 0.00 66 1004.2
20260506095255 4 319 3.2 12.9 0.00 0.00 0.00 66 1004.1
20260506095156 4 321 3.2 12.9 0.00 0.00 0.00 66 1004.1
20260506094957 4 291 4.8 12.9 0.00 0.00 0.00 66 1004.0
20260506094856 4 296 11.3 12.9 0.00 0.00 0.00 66 1004.1
20260506094755 4 316 6.4 14.5 0.00 0.00 0.00 66 1004.1
20260506094556 4 296 12.9 14.5 0.00 0.00 0.00 66 1004.1
20260506094356 4 343 0.0 14.5 0.00 0.00 0.00 65 1004.1
20260506094256 4 342 1.6 14.5 0.00 0.00 0.00 65 1004.1
20260506094155 4 343 3.2 14.5 0.00 0.00 0.00 65 1004.1
20260506094056 4 355 1.6 14.5 0.00 0.00 0.00 65 1004.0
20260506093655 5 327 6.4 14.5 0.00 0.00 0.00 64 1004.1
20260506093555 5 309 11.3 14.5 0.00 0.00 0.00 63 1004.1
20260506093457 5 123 3.2 12.9 0.00 0.00 0.00 63 1004.1
20260506093357 5 114 11.3 12.9 0.00 0.00 0.00 63 1004.0
20260506093256 5 313 3.2 12.9 0.00 0.00 0.00 63 1004.0
20260506093156 5 304 3.2 16.1 0.00 0.00 0.00 62 1003.9
20260506093055 5 277 4.8 19.3 0.00 0.00 0.00 62 1004.0
20260506092957 5 288 8.0 19.3 0.00 0.00 0.00 62 1004.0
20260506092755 5 240 8.0 19.3 0.00 0.00 0.00 62 1004.0
20260506092655 5 191 6.4 19.3 0.00 0.00 0.00 62 1004.0
20260506092555 5 28 3.2 19.3 0.00 0.00 0.00 62 1004.0
20260506092457 5 190 4.8 19.3 0.00 0.00 0.00 62 1004.1
20260506092255 5 138 8.0 20.9 0.00 0.00 0.00 62 1004.0
20260506092155 5 226 8.0 24.1 0.00 0.00 0.00 62 1004.0
20260506092055 5 191 4.8 24.1 0.00 0.00 0.00 62 1003.9
20260506091957 5 252 6.4 24.1 0.00 0.00 0.00 62 1003.9
20260506091755 5 160 6.4 24.1 0.00 0.00 0.00 62 1003.9
20260506091657 5 71 3.2 24.1 0.00 0.00 0.00 62 1003.9
20260506091556 5 141 1.6 24.1 0.00 0.00 0.00 62 1003.9
20260506091458 5 118 11.3 24.1 0.00 0.00 0.00 62 1003.9
20260506091355 5 78 16.1 24.1 0.00 0.00 0.00 62 1003.9
20260506091255 5 120 20.9 24.1 0.00 0.00 0.00 62 1003.9
20260506091056 5 86 4.8 24.1 0.00 0.00 0.00 62 1003.9
20260506090958 5 83 6.4 24.1 0.00 0.00 0.00 62 1003.9
20260506090755 5 103 14.5 24.1 0.00 0.00 0.00 62 1003.9
20260506090656 5 120 24.1 24.1 0.00 0.00 0.00 63 1003.9
20260506090555 5 209 6.4 20.9 0.00 0.00 0.00 62 1003.8
20260506090458 5 126 8.0 20.9 0.00 0.00 0.00 62 1003.9
20260506090356 5 112 3.2 20.9 0.00 0.00 0.00 62 1003.9
20260506090256 5 90 12.9 20.9 0.00 0.00 0.00 62 1003.9
20260506090156 5 166 8.0 20.9 0.00 0.00 0.00 62 1003.9
20260506090056 5 143 3.2 20.9 0.00 0.00 0.00 63 1003.9
20260506090000 5 124 8.0 20.9 0.00 0.00 0.00 63 1003.9
20260506085858 5 96 9.7 20.9 0.00 0.00 0.00 62 1003.9
20260506085756 5 105 11.3 20.9 0.00 0.00 0.00 62 1003.9
20260506085656 5 144 4.8 12.9 0.00 0.00 0.00 63 1003.9
20260506085556 5 118 1.6 14.5 0.00 0.00 0.00 63 1003.9
20260506085458 5 111 4.8 14.5 0.00 0.00 0.00 63 1003.9
20260506085356 5 180 3.2 14.5 0.00 0.00 0.00 63 1003.8
20260506085257 5 180 4.8 14.5 0.00 0.00 0.00 63 1003.9
20260506085157 5 208 1.6 14.5 0.00 0.00 0.00 63 1003.9
20260506085057 5 208 1.6 14.5 0.00 0.00 0.00 63 1003.9
20260506084958 5 135 3.2 14.5 0.00 0.00 0.00 63 1003.9
20260506084757 5 190 8.0 19.3 0.00 0.00 0.00 63 1003.9
20260506084657 5 176 4.8 19.3 0.00 0.00 0.00 63 1003.9
20260506084556 5 178 9.7 19.3 0.00 0.00 0.00 63 1003.9
20260506084458 5 142 8.0 19.3 0.00 0.00 0.00 63 1003.9
20260506084358 5 155 3.2 19.3 0.00 0.00 0.00 63 1003.9
20260506084257 5 136 8.0 19.3 0.00 0.00 0.00 63 1003.8
20260506084156 5 142 12.9 19.3 0.00 0.00 0.00 62 1003.8
20260506084057 5 151 6.4 17.7 0.00 0.00 0.00 62 1003.8
20260506083958 5 164 3.2 17.7 0.00 0.00 0.00 62 1003.8
20260506083757 5 159 11.3 17.7 0.00 0.00 0.00 62 1003.7
20260506083657 5 159 11.3 17.7 0.00 0.00 0.00 63 1003.7
20260506083556 5 173 3.2 17.7 0.00 0.00 0.00 62 1003.7
20260506083356 5 172 1.6 22.5 0.00 0.00 0.00 62 1003.8
20260506083056 5 155 4.8 22.5 0.00 0.00 0.00 63 1003.7
20260506082957 5 131 11.3 22.5 0.00 0.00 0.00 63 1003.7
20260506082856 5 154 11.3 22.5 0.00 0.00 0.00 63 1003.7
20260506082756 5 177 9.7 22.5 0.00 0.00 0.00 62 1003.8
20260506082656 5 189 9.7 22.5 0.00 0.00 0.00 62 1003.8
20260506082556 5 150 6.4 22.5 0.00 0.00 0.00 62 1003.7
20260506082459 5 181 3.2 22.5 0.00 0.00 0.00 61 1003.6
20260506082256 5 160 6.4 22.5 0.00 0.00 0.00 61 1003.6
20260506082156 5 169 11.3 22.5 0.00 0.00 0.00 61 1003.6
20260506081957 5 163 3.2 22.5 0.00 0.00 0.00 60 1003.6
20260506081857 5 114 9.7 30.6 0.00 0.00 0.00 60 1003.6
20260506081656 5 162 11.3 30.6 0.00 0.00 0.00 60 1003.6
20260506081556 5 132 4.8 30.6 0.00 0.00 0.00 60 1003.5
20260506081458 5 130 11.3 30.6 0.00 0.00 0.00 60 1003.6
20260506081356 5 106 11.3 30.6 0.00 0.00 0.00 61 1003.5
20260506081256 5 161 1.6 30.6 0.00 0.00 0.00 61 1003.4
20260506081157 5 175 12.9 32.2 0.00 0.00 0.00 61 1003.5
20260506081056 5 140 19.3 32.2 0.00 0.00 0.00 61 1003.5
20260506080959 5 150 22.5 32.2 0.00 0.00 0.00 61 1003.5
20260506080857 5 128 16.1 32.2 0.00 0.00 0.00 61 1003.5
20260506080758 5 171 14.5 32.2 0.00 0.00 0.00 61 1003.6
20260506080656 5 147 12.9 32.2 0.00 0.00 0.00 60 1003.5
20260506080557 5 153 16.1 32.2 0.00 0.00 0.00 60 1003.5
20260506080457 5 146 8.0 32.2 0.00 0.00 0.00 59 1003.5
20260506080358 5 123 20.9 32.2 0.00 0.00 0.00 59 1003.5
20260506080257 5 150 8.0 29.0 0.00 0.00 0.00 59 1003.5
20260506080158 5 155 6.4 29.0 0.00 0.00 0.00 59 1003.5
20260506073500 5 192 9.7 20.9 0.00 0.00 0.00 60 1003.3
20260506073357 5 142 6.4 20.9 0.00 0.00 0.00 60 1003.3
20260506073258 5 121 4.8 22.5 0.00 0.00 0.00 60 1003.3
20260506073158 5 122 14.5 22.5 0.00 0.00 0.00 60 1003.3
20260506073058 5 81 14.5 27.4 0.00 0.00 0.00 60 1003.2
20260506073001 5 166 19.3 27.4 0.00 0.00 0.00 60 1003.3
20260506072859 5 153 6.4 29.0 0.00 0.00 0.00 60 1003.3
20260506072758 5 169 1.6 32.2 0.00 0.00 0.00 60 1003.3
20260506072658 5 121 16.1 32.2 0.00 0.00 0.00 59 1003.3
20260506072558 5 108 16.1 32.2 0.00 0.00 0.00 60 1003.2
20260506072358 5 92 17.7 32.2 0.00 0.00 0.00 60 1003.2
20260506072258 5 134 16.1 32.2 0.00 0.00 0.00 60 1003.3
20260506071858 5 124 22.5 32.2 0.00 0.00 0.00 61 1003.2
20260506071659 5 126 14.5 32.2 0.00 0.00 0.00 60 1003.3
20260506071503 5 115 19.3 32.2 0.00 0.00 0.00 61 1003.2
20260506071359 5 104 16.1 33.8 0.00 0.00 0.00 60 1003.2
20260506071258 5 99 27.4 33.8 0.00 0.00 0.00 61 1003.1
20260506071159 5 109 12.9 33.8 0.00 0.00 0.00 61 1003.2
20260506071058 5 128 14.5 33.8 0.00 0.00 0.00 60 1003.2
20260506071001 5 148 19.3 33.8 0.00 0.00 0.00 60 1003.2
20260506070858 5 117 16.1 33.8 0.00 0.00 0.00 60 1003.2
20260506070558 5 122 25.7 37.0 0.00 0.00 0.00 60 1003.2
20260506070500 5 106 29.0 37.0 0.00 0.00 0.00 60 1003.1
20260506070358 5 105 29.0 37.0 0.00 0.00 0.00 61 1003.2
20260506070300 5 109 17.7 37.0 0.00 0.00 0.00 60 1003.2
20260506070158 5 125 22.5 37.0 0.00 0.00 0.00 60 1003.2